GFSNW_sfc_thetae_003.txt.gz
Theta_e
312 311 311 311 310 309 313 323 312 323 327 313 312 306 303 298 303 305 303 303 301 299 300 299 298 297 300 304 304 299 302 298 293 297 303 302 300 299 299 292 290 293 292 290
312 311 311 310 310 309 322 315 314 324 325 306 307 305 303 304 302 303 302 301 303 303 300 297 299 300 304 304 302 301 302 296 290 294 298 300 299 301 300 298 296 290 286 290
313 312 311 311 310 310 317 315 308 315 317 314 307 304 303 301 305 303 304 303 304 302 300 302 299 300 303 304 304 302 302 298 294 290 294 298 295 297 299 298 290 292 293 295
312 312 312 311 310 310 318 314 308 308 307 308 308 307 304 302 301 305 305 302 302 300 296 297 297 300 302 304 302 303 303 294 297 297 298 297 296 296 296 295 296 291 294 295
312 311 311 310 310 309 319 313 312 312 308 305 305 301 302 300 301 302 301 301 302 302 299 300 298 301 301 300 303 302 302 293 294 291 296 296 293 296 296 296 296 296 297 296
311 311 310 310 309 311 318 316 314 317 302 303 304 303 302 301 303 304 304 304 303 300 303 306 306 307 306 305 302 301 298 293 290 285 294 291 286 292 296 297 299 298 293 298
311 308 307 309 309 308 322 318 317 300 304 305 303 303 304 303 304 303 305 306 304 307 311 310 308 306 305 305 304 305 296 291 288 285 289 282 295 301 300 297 298 299 299 299
309 308 311 310 310 309 322 321 317 311 292 307 304 304 304 305 306 304 305 307 310 312 308 300 291 294 290 294 301 301 303 294 287 286 287 291 294 298 297 295 294 299 298 299
308 308 309 309 309 310 321 324 322 315 294 303 307 305 306 304 304 305 305 310 312 310 305 293 286 288 290 291 294 298 297 298 288 289 283 281 293 299 300 300 290 300 300 300
308 308 308 308 308 309 318 323 325 317 304 311 309 306 306 309 306 304 305 305 303 308 295 286 287 289 295 288 287 289 289 288 286 286 284 289 298 302 300 288 292 302 302 300
307 307 307 307 307 308 315 322 325 318 308 311 312 312 309 308 307 303 304 303 303 299 290 288 290 288 294 293 295 292 290 287 286 287 285 284 301 300 292 298 304 304 303 302
307 306 307 307 307 307 310 315 323 322 312 312 318 317 316 314 312 308 308 304 303 304 298 293 292 288 288 288 285 297 288 295 294 294 294 304 307 303 306 306 304 303 302 303
306 306 306 307 308 308 310 316 318 314 295 304 307 310 315 318 317 318 306 306 308 306 309 304 292 287 295 286 288 291 294 300 295 296 298 301 301 305 307 305 302 304 304 302
305 306 306 306 307 307 308 311 317 314 298 287 298 314 312 317 317 315 314 311 312 310 310 290 287 287 296 290 293 292 295 296 293 295 299 300 301 303 304 303 303 303 304 303
305 306 305 306 307 307 308 310 314 316 307 290 293 304 311 314 314 312 312 311 308 308 293 287 289 296 294 294 294 291 296 295 291 289 299 300 301 302 302 301 301 302 301 299
304 305 305 306 306 306 305 298 305 311 310 293 288 300 303 309 310 310 309 310 309 307 299 289 296 301 294 287 288 295 300 301 302 298 303 302 302 302 303 301 302 299 297 297
304 304 305 305 305 307 300 296 304 307 310 288 287 289 297 297 302 308 307 309 307 303 298 292 295 295 296 288 288 298 299 301 302 304 303 299 301 299 303 300 298 298 297 297
303 303 303 303 304 303 298 302 304 306 297 291 286 287 291 299 295 295 303 299 297 296 296 295 295 298 292 288 296 298 300 300 300 299 301 302 303 301 297 298 296 295 294 296
303 303 303 303 300 294 297 302 303 304 296 285 285 287 286 299 296 295 296 296 287 298 290 295 297 294 290 294 296 297 298 298 298 300 300 298 296 295 295 295 295 293 292 292
302 303 297 290 297 301 302 299 293 290 288 287 286 292 288 297 292 289 290 291 286 285 291 297 292 291 297 298 299 300 299 299 297 294 293 294 293 293 294 294 294 292 289 290
302 296 293 299 300 301 294 289 287 288 285 287 290 293 290 296 289 287 291 287 288 284 289 291 289 288 294 297 298 299 296 295 295 295 295 295 294 293 293 293 293 290 289 289
300 300 301 300 295 291 286 285 288 286 286 292 291 291 293 294 296 291 290 286 287 282 291 284 284 290 293 294 293 294 295 295 294 295 294 294 294 294 294 292 290 290 288 285
302 295 290 290 288 282 281 280 284 286 290 288 287 287 290 290 289 286 285 283 284 289 284 284 288 292 293 292 293 293 294 294 291 293 294 294 293 293 290 289 289 286 288 286
290 287 282 284 282 284 286 286 287 288 287 288 290 289 289 289 286 287 282 288 287 281 281 284 292 290 291 292 293 292 292 290 290 291 292 290 288 287 287 286 286 285 286 285
286 285 281 282 288 290 288 288 290 290 290 290 289 289 288 285 283 285 284 280 279 282 282 290 292 291 292 291 291 291 290 289 288 291 290 287 286 287 287 287 286 286 285 284
287 286 284 287 284 285 284 284 285 292 290 289 289 284 281 281 284 281 280 279 278 284 292 293 292 291 291 290 290 290 290 290 291 292 291 289 286 285 286 287 286 285 285 284
284 284 288 288 285 285 286 288 289 293 287 284 285 279 279 284 281 279 283 281 286 290 291 291 291 291 291 292 290 289 290 291 291 291 291 289 288 286 285 284 285 285 285 284

GFSNW_sfc_thetae_006.txt.gz
Theta_e
313 312 312 311 311 310 313 328 312 325 328 313 312 305 303 298 304 306 304 304 303 301 301 299 299 298 301 305 304 299 303 298 292 296 303 303 300 298 298 290 289 292 290 289
313 312 312 311 311 310 318 315 314 327 326 306 307 305 303 305 303 304 303 302 304 304 301 297 300 301 305 305 303 300 301 297 289 292 298 301 298 299 299 298 294 289 285 289
314 313 312 312 311 310 318 315 304 315 317 314 307 304 303 301 306 304 305 304 305 303 301 303 299 300 304 305 304 302 302 297 293 288 292 297 294 296 298 296 289 290 291 293
313 313 312 311 311 310 320 313 309 310 309 308 308 307 304 302 301 306 306 303 302 301 295 297 297 301 302 305 303 304 302 293 296 296 297 296 295 294 295 294 294 289 292 294
312 313 312 311 310 309 321 312 311 312 307 307 305 301 302 301 302 302 301 300 303 303 300 299 297 300 301 300 304 303 303 292 292 290 295 295 292 295 295 295 295 295 296 295
311 314 311 310 309 311 318 317 315 317 303 306 304 304 302 302 303 305 305 304 303 298 303 306 306 306 305 304 301 300 299 293 287 286 292 290 285 291 294 296 297 296 291 296
311 308 308 310 309 310 323 320 317 297 304 307 303 303 304 303 304 303 306 306 302 306 312 310 308 306 303 303 302 303 295 289 287 285 286 280 293 300 298 296 298 299 298 298
310 308 310 311 310 310 322 321 317 309 290 306 304 305 304 305 306 304 305 306 310 313 307 297 289 294 291 293 300 301 302 291 288 284 286 290 292 296 296 293 293 299 298 300
309 309 310 310 310 310 318 323 324 315 292 302 307 305 306 304 304 305 306 311 313 309 304 292 286 287 290 290 293 300 298 294 293 289 283 280 292 297 301 300 288 300 300 299
308 308 308 308 309 309 316 324 327 317 304 311 310 306 306 308 307 304 306 306 305 308 293 287 286 287 294 288 286 287 290 288 286 287 285 288 297 300 302 287 289 300 301 299
308 307 307 307 307 308 313 321 327 319 308 310 313 313 308 308 308 304 306 303 306 298 289 287 290 287 293 292 294 291 289 287 286 285 284 283 302 301 291 297 302 301 301 300
307 307 307 307 307 307 309 315 326 325 313 311 318 317 319 315 313 309 308 303 303 303 297 291 291 287 289 287 285 296 287 293 290 291 291 300 303 301 303 303 301 301 301 301
306 306 306 307 307 307 310 314 320 314 295 307 309 309 316 319 318 320 306 310 309 306 310 302 290 287 295 286 288 291 295 299 292 292 296 298 301 303 304 304 301 302 302 301
305 305 306 306 307 307 308 311 318 313 298 286 299 314 311 317 317 317 316 313 313 311 309 293 288 286 296 290 293 291 295 296 292 292 297 299 300 303 303 303 303 301 302 300
305 305 305 306 306 307 308 312 316 316 305 291 293 303 310 313 315 313 314 312 309 306 294 288 289 296 293 296 294 290 296 294 291 289 298 298 299 303 304 301 300 300 298 296
304 305 306 306 306 306 307 299 307 310 310 294 287 301 302 308 311 310 309 310 309 307 301 292 297 301 292 286 289 296 300 301 302 298 302 302 303 302 302 300 299 298 296 296
304 304 305 305 305 307 301 297 303 307 310 288 289 292 297 302 304 306 306 308 306 304 299 292 292 292 295 286 288 297 300 301 301 302 302 297 299 298 300 299 297 297 296 296
304 304 304 304 304 303 299 302 304 305 297 291 287 287 290 299 297 294 301 297 295 293 293 291 289 294 290 287 295 298 300 300 300 300 301 299 298 297 296 296 296 294 293 292
303 303 303 302 299 294 297 303 303 303 296 286 285 285 286 298 294 292 291 292 286 293 288 291 292 291 288 293 296 297 298 298 297 298 296 295 294 294 294 294 294 293 291 289
302 304 297 288 294 302 302 297 290 288 287 286 285 292 290 297 291 288 289 288 286 285 290 296 290 289 297 298 299 299 297 296 295 293 291 292 292 292 293 293 294 293 289 289
302 296 290 299 301 299 293 287 285 286 285 287 289 291 291 297 288 286 288 285 286 284 289 290 288 287 293 297 297 296 295 295 295 294 294 293 293 292 292 291 292 290 288 288
300 300 302 299 295 291 286 285 287 286 286 291 289 290 292 291 296 289 287 285 286 280 291 285 283 289 294 294 294 294 294 294 293 294 292 292 292 293 291 291 291 288 288 284
302 295 290 289 288 282 281 280 284 285 289 288 288 287 290 291 290 286 285 283 282 288 284 283 287 293 294 293 293 292 293 292 290 291 291 292 292 292 287 287 287 287 285 285
292 286 282 284 281 283 286 287 285 286 287 289 290 288 289 288 285 285 280 286 287 281 280 282 290 291 291 292 292 292 291 287 287 289 290 289 288 287 286 285 284 283 283 284
287 286 281 283 288 289 286 289 289 289 290 291 289 289 288 286 283 285 284 280 278 281 282 289 291 292 292 291 292 291 288 285 286 289 288 287 287 286 285 286 285 285 284 283
287 284 283 287 286 285 285 285 286 291 291 290 289 285 281 280 282 280 279 279 278 284 290 291 291 291 291 289 288 289 290 289 289 289 289 289 287 286 286 286 285 285 284 284
282 284 289 288 287 285 286 286 288 294 287 284 285 279 279 285 280 279 283 281 286 289 290 290 291 289 290 289 289 287 288 289 289 290 290 289 289 287 285 284 285 284 284 284

GFSNW_sfc_thetae_009.txt.gz
Theta_e
312 312 312 311 310 310 315 315 303 316 320 306 304 295 301 299 303 306 304 303 301 298 299 297 297 297 299 303 301 297 298 293 283 292 299 301 296 296 295 286 285 284 283 287
312 312 312 311 310 310 306 309 309 319 317 294 292 300 303 304 303 302 303 301 302 302 298 292 298 299 303 302 301 297 297 288 281 287 293 297 294 296 295 293 285 285 279 285
313 312 312 311 310 310 310 309 292 307 309 307 301 299 300 300 305 304 304 303 303 300 298 300 295 298 303 303 302 302 300 293 287 282 288 294 291 293 294 292 279 284 285 289
312 312 311 311 310 310 313 307 299 302 293 299 301 302 302 300 300 304 304 301 301 298 290 293 295 300 300 302 301 301 298 286 292 293 294 295 293 292 292 290 290 285 289 289
311 311 310 309 309 309 313 303 303 305 299 303 301 297 299 300 300 300 301 298 301 300 294 297 293 297 296 296 299 297 299 286 288 288 293 294 290 291 292 291 291 291 291 291
310 311 307 309 309 311 313 309 308 306 298 297 293 294 300 301 302 303 303 301 299 292 300 301 301 301 301 300 297 292 292 286 282 286 289 288 280 287 290 292 293 292 285 291
310 308 308 309 308 309 313 312 309 290 288 291 297 302 302 301 302 299 304 302 296 304 308 305 300 298 298 298 298 298 287 283 284 285 283 279 289 296 295 292 293 294 295 295
310 307 308 309 308 309 312 314 310 294 287 296 300 301 301 302 302 300 303 305 308 307 301 289 286 284 285 289 296 295 296 285 284 282 281 286 289 293 291 289 289 297 295 297
309 309 309 310 309 309 312 316 315 301 289 292 306 300 301 292 292 294 300 307 307 305 288 288 281 276 283 285 290 297 293 289 285 282 277 276 285 294 299 298 285 297 299 297
308 308 308 308 309 309 311 313 318 310 294 301 305 298 296 303 297 290 297 299 295 302 287 286 285 280 290 281 279 280 282 283 280 277 280 283 292 296 300 282 287 298 299 298
307 307 307 307 308 308 311 312 318 310 298 303 307 309 303 303 300 289 297 295 292 289 286 286 286 285 284 283 288 283 282 279 282 279 282 277 297 295 285 293 297 298 298 298
307 307 306 307 307 308 308 307 317 317 305 304 312 313 313 311 309 303 300 298 299 296 287 286 286 286 286 285 284 292 285 288 283 285 283 294 297 295 298 299 298 298 298 298
306 306 306 307 307 308 309 309 312 308 293 303 302 303 310 315 313 314 296 295 304 300 300 292 289 287 288 285 286 286 293 296 287 287 291 295 297 299 300 300 299 300 300 299
305 305 306 306 306 307 308 308 312 309 296 287 296 308 307 314 313 312 311 308 308 306 301 289 287 286 295 288 290 290 292 293 290 290 293 295 296 297 299 299 301 299 297 296
305 305 305 305 306 307 307 309 311 313 305 289 291 301 306 310 310 310 310 308 306 297 290 287 287 289 290 289 288 288 295 293 289 288 295 295 296 297 299 298 296 296 295 292
305 305 306 305 305 306 306 299 307 311 311 293 287 299 299 304 306 305 305 307 304 302 294 288 293 298 293 286 288 294 298 299 299 295 298 298 297 299 300 298 296 294 293 292
304 304 305 305 305 307 301 296 302 307 309 288 288 288 294 297 298 300 300 302 300 299 293 290 291 292 295 286 288 295 298 298 299 300 299 296 296 292 295 294 294 295 293 292
304 304 304 304 305 303 298 301 304 306 297 291 288 287 288 295 287 289 295 289 291 292 292 289 288 291 288 286 293 296 297 298 297 298 296 295 294 293 293 294 293 291 290 289
303 303 303 301 298 293 296 303 302 301 296 287 285 285 285 296 292 290 289 290 285 290 286 288 290 287 286 291 293 295 295 294 293 294 293 291 291 291 292 291 290 290 289 287
302 302 295 287 292 302 301 296 289 288 286 286 285 289 287 294 287 286 286 286 285 284 287 290 286 286 293 295 296 296 292 293 293 288 287 287 287 288 289 289 289 289 287 286
299 291 287 296 301 298 290 285 285 285 283 285 287 288 287 292 286 285 286 285 285 282 280 280 277 281 288 293 293 292 293 293 293 292 290 289 288 287 287 286 286 286 284 284
298 296 299 296 291 287 285 284 284 284 281 286 286 287 289 287 291 285 285 283 284 278 282 282 278 283 290 290 291 291 291 290 291 290 288 288 288 288 286 285 284 282 283 284
297 290 286 286 285 281 276 276 282 279 284 287 286 285 286 287 287 285 283 281 280 284 281 279 279 287 289 289 289 289 289 286 284 287 288 288 287 287 284 285 282 279 285 284
285 283 274 277 278 278 280 280 284 285 286 286 286 285 283 284 283 283 278 278 281 278 276 273 279 285 288 289 290 289 288 282 282 284 285 283 282 282 281 278 281 285 280 280
280 282 273 278 281 285 284 286 286 285 287 286 284 283 281 277 275 279 275 273 276 274 272 276 281 285 286 286 287 285 282 280 279 284 281 281 281 281 282 280 280 282 280 280
284 282 278 281 280 282 283 284 285 286 285 283 281 276 272 271 274 271 272 271 271 273 277 280 283 284 284 285 283 284 285 285 284 285 284 284 282 280 282 283 284 284 282 281
279 275 281 284 282 284 283 285 285 287 279 274 275 270 272 276 270 271 277 272 274 277 279 280 283 284 284 284 284 282 283 284 284 284 285 285 283 278 284 284 286 284 282 282

GFSNW_sfc_thetae_012.txt.gz
Theta_e
311 311 311 311 310 310 310 310 297 308 317 302 298 292 298 299 301 304 302 301 299 297 297 295 295 295 297 300 300 295 296 290 283 290 296 298 295 292 292 281 284 282 284 285
311 311 311 310 309 309 306 305 304 314 312 290 287 298 301 302 301 301 301 299 300 300 296 291 296 297 301 300 299 295 295 287 280 285 290 295 292 294 293 291 284 282 277 281
311 311 310 310 309 309 309 303 293 302 305 303 297 297 298 298 303 302 302 300 301 298 295 298 293 296 301 301 300 301 298 291 285 281 285 291 289 292 292 289 279 283 285 287
311 310 309 309 309 309 310 302 296 300 291 296 297 299 301 298 298 302 302 299 299 297 289 291 293 297 298 300 300 298 295 285 289 291 292 292 292 292 292 289 288 283 287 287
310 309 306 308 309 309 306 301 300 301 296 301 298 295 297 298 298 300 298 297 299 298 293 294 291 295 294 294 297 294 296 285 286 287 291 292 289 292 291 290 290 289 289 288
310 306 306 308 308 312 306 306 306 301 293 293 290 291 298 299 301 300 301 300 296 290 298 300 300 300 299 298 295 290 290 284 282 284 287 286 283 286 288 289 291 289 284 289
309 306 308 307 308 309 310 307 300 290 286 287 293 300 300 299 299 298 301 300 295 302 304 302 298 295 294 295 295 297 286 282 282 283 284 278 289 293 293 290 291 292 293 294
309 305 309 308 307 308 311 310 305 291 285 293 296 298 299 299 298 298 300 302 303 304 296 287 283 283 284 286 295 294 294 286 282 278 281 285 288 291 289 287 288 294 293 295
308 308 309 308 308 308 311 311 308 297 289 290 302 298 298 291 289 291 298 305 305 299 286 283 276 275 282 284 289 295 291 287 280 282 280 277 284 291 297 295 282 295 295 294
308 308 308 308 308 309 310 309 313 304 294 298 303 296 294 300 294 288 292 298 293 297 287 283 279 279 288 281 278 278 281 283 276 273 278 279 289 294 296 277 283 293 296 296
307 307 307 307 308 308 310 310 313 307 296 302 305 307 302 301 296 288 295 294 290 289 286 284 281 284 283 282 286 283 282 279 281 279 279 278 294 294 286 290 292 295 295 295
306 307 306 307 307 308 309 305 313 312 303 302 309 310 312 309 306 301 297 296 295 292 287 287 283 284 285 283 284 290 285 287 282 284 282 291 295 295 295 297 295 294 296 298
306 306 306 306 307 308 308 306 308 305 292 299 300 302 307 313 311 310 295 290 302 297 297 289 287 286 287 286 286 288 291 294 285 287 291 293 295 298 298 297 296 298 296 294
305 305 305 306 306 307 307 305 307 303 296 287 295 305 305 311 310 309 308 305 306 304 299 288 287 286 294 288 292 290 293 294 290 290 293 295 296 296 298 299 297 296 296 296
305 305 305 305 306 307 305 306 309 309 303 289 290 300 305 308 309 308 309 307 304 296 290 287 287 289 289 287 287 288 295 292 289 288 295 295 296 298 299 295 295 295 293 292
304 305 305 306 305 306 306 299 305 309 311 293 287 298 297 302 303 304 303 304 302 300 292 288 292 297 292 286 286 293 297 299 300 296 299 298 298 296 296 293 293 294 293 291
304 305 305 305 305 307 302 298 302 308 310 289 288 288 293 295 297 298 298 299 298 298 293 289 292 292 295 286 288 296 297 298 300 299 299 294 294 292 294 293 293 293 293 292
304 304 304 304 304 303 299 301 304 306 298 291 287 287 288 295 286 287 293 288 290 292 292 288 288 290 287 287 295 295 297 298 297 296 296 295 292 292 292 293 292 290 289 290
304 303 303 301 298 294 296 302 301 300 297 288 286 285 285 295 291 288 287 287 286 289 286 287 290 286 286 290 292 294 294 294 292 292 291 291 290 290 289 289 289 288 288 288
303 301 294 287 292 302 301 295 289 288 287 286 285 288 286 293 287 285 286 285 285 284 286 291 286 288 293 295 296 295 290 291 290 287 285 286 285 286 285 286 287 286 285 286
297 290 287 296 302 297 289 285 285 285 284 285 286 287 286 292 286 285 286 285 284 280 279 284 279 281 286 290 289 290 291 291 291 290 289 288 286 285 285 284 285 284 283 283
297 296 298 295 290 286 285 283 283 283 280 285 284 286 289 287 291 285 284 283 283 276 279 278 279 280 286 287 288 288 289 290 289 289 288 287 287 287 284 284 284 283 282 280
294 289 286 285 285 278 274 278 280 280 284 286 286 285 286 286 287 284 278 277 274 282 280 278 278 285 288 289 290 289 288 285 284 288 289 288 286 285 282 282 282 280 279 281
284 279 277 277 276 278 278 279 284 285 285 285 286 285 282 282 277 282 278 278 280 275 275 273 278 284 286 287 287 286 285 280 281 283 284 282 281 281 280 277 279 275 283 284
278 278 274 278 282 282 284 285 285 285 286 284 280 279 279 276 273 280 277 271 275 276 271 275 280 283 284 284 285 285 281 281 281 283 281 280 279 279 281 282 278 281 283 283
278 279 277 278 280 281 283 284 284 285 280 280 279 274 271 270 271 269 270 269 269 272 273 278 282 283 284 283 283 284 283 282 283 284 283 283 280 281 282 280 283 286 285 284
275 273 280 281 279 277 283 281 283 286 282 273 272 269 272 274 267 268 275 270 273 276 278 280 282 282 282 283 283 280 282 283 283 283 283 283 283 279 281 279 285 284 285 285

GFSNW_sfc_thetae_015.txt.gz
Theta_e
310 310 310 310 310 309 312 306 295 306 312 300 293 291 296 298 299 302 300 299 297 295 295 293 293 293 296 299 298 293 295 288 282 288 294 296 293 291 289 283 283 281 280 283
310 310 310 309 309 309 308 303 302 311 308 289 286 296 299 300 299 299 299 297 298 298 294 290 294 295 299 298 297 293 293 286 280 284 289 292 290 291 291 288 283 283 278 280
311 310 308 307 309 309 309 300 292 301 301 299 295 295 295 296 301 300 300 298 299 296 294 296 292 294 299 300 298 300 297 289 284 280 284 289 287 290 291 288 279 282 284 286
310 307 306 307 309 308 308 299 294 298 290 295 297 297 298 296 295 299 300 298 297 295 288 290 291 295 296 298 299 297 293 285 287 289 290 290 290 290 291 288 287 284 286 287
309 305 307 308 309 309 304 300 298 297 295 299 295 293 294 297 297 298 296 295 297 296 292 292 290 294 292 293 295 293 294 284 286 284 290 290 288 290 290 289 289 288 287 286
305 305 308 308 308 310 304 303 302 298 291 291 289 290 295 297 299 299 300 298 295 288 296 299 298 299 298 296 293 289 289 284 283 279 286 284 279 285 287 288 289 288 283 287
304 304 308 307 308 310 307 304 298 289 285 285 291 298 298 297 297 296 299 298 294 298 302 299 296 293 292 292 293 295 285 283 282 281 284 276 287 291 291 289 290 290 290 292
305 304 308 307 307 309 310 306 299 291 285 292 293 297 297 297 297 297 297 301 300 300 295 286 283 283 283 284 293 291 290 285 282 282 280 283 288 290 287 286 287 293 292 293
306 308 308 308 307 308 310 307 301 296 289 290 299 296 296 289 287 290 296 302 302 297 284 282 277 276 281 283 287 292 289 285 280 281 279 276 284 289 294 293 283 293 294 292
308 308 308 308 308 308 309 308 307 302 292 296 301 294 292 297 292 287 290 295 292 295 287 282 275 278 286 280 277 278 280 283 279 279 280 280 287 291 293 279 282 294 295 295
307 307 308 308 308 307 309 307 310 305 294 299 303 304 300 299 295 288 294 293 289 288 283 279 279 274 282 281 285 282 281 279 277 279 278 276 291 292 286 290 291 293 292 292
306 306 307 307 308 308 309 306 310 309 303 301 308 309 309 307 303 298 295 295 292 292 288 286 283 284 280 280 283 288 285 286 281 283 283 291 293 294 295 296 293 292 291 295
306 306 306 307 307 308 308 306 306 304 292 298 300 301 305 311 310 308 295 289 298 294 295 288 286 286 285 283 285 287 291 294 286 288 290 293 295 298 299 296 294 295 296 295
306 306 306 306 306 307 308 305 305 303 295 287 294 303 303 309 310 308 305 304 302 300 294 287 286 286 293 287 292 289 292 293 290 290 294 295 296 297 298 299 297 294 294 293
305 305 305 306 306 307 307 306 308 309 304 289 291 298 303 306 307 305 305 304 300 295 288 286 287 289 289 288 287 287 294 291 289 288 296 295 296 298 299 293 292 292 292 291
304 305 305 306 306 307 307 300 306 309 309 292 287 296 297 301 302 303 303 304 302 299 292 288 290 294 292 286 286 294 297 298 299 296 299 299 298 295 295 292 293 293 292 291
304 304 305 305 305 308 303 298 302 307 309 289 288 288 292 294 296 296 297 298 296 297 292 289 291 292 295 286 288 296 298 298 297 300 299 294 292 289 293 292 293 294 292 291
304 304 304 304 305 304 300 301 304 306 300 292 286 287 289 293 285 287 293 289 290 289 292 288 287 289 288 287 294 295 295 296 296 294 295 293 293 292 290 289 288 287 288 288
304 303 303 301 299 294 296 302 302 300 298 287 286 286 286 295 290 288 287 288 286 289 286 287 289 286 286 291 292 293 294 293 290 288 287 287 286 286 287 287 286 285 285 285
302 300 295 287 292 302 301 296 290 289 287 286 285 288 286 294 286 286 286 285 285 284 286 290 285 286 291 287 289 289 288 288 289 286 285 285 284 285 285 285 285 284 283 284
296 290 287 295 302 296 289 286 286 286 284 285 286 286 286 291 286 286 286 285 284 280 278 284 279 277 283 286 286 288 288 288 289 291 290 288 285 284 284 284 284 284 284 283
296 296 297 294 290 286 285 284 284 283 281 285 284 286 289 287 290 285 284 283 283 272 279 280 277 281 285 286 287 288 290 290 289 288 287 287 287 287 286 285 284 283 283 279
294 289 287 286 284 280 275 278 279 280 283 286 286 285 285 286 287 284 281 279 277 282 278 275 277 284 286 287 289 288 288 285 282 285 286 287 286 285 281 282 282 280 280 279
282 281 278 274 274 279 276 276 280 284 285 286 285 284 282 283 275 281 278 276 279 277 272 272 279 283 285 286 286 284 284 281 281 282 282 281 280 280 280 277 279 277 277 282
278 276 271 276 280 283 284 285 285 285 286 284 279 282 280 279 273 279 278 274 274 276 271 274 280 283 284 283 284 283 281 280 279 282 280 279 279 278 279 280 279 277 277 283
277 274 275 281 281 280 283 285 284 285 284 280 278 271 269 269 270 271 273 269 268 271 272 277 282 283 283 282 282 283 283 282 282 282 282 282 280 279 281 281 279 280 280 285
272 272 280 273 277 273 277 283 282 283 281 272 272 269 272 273 265 266 274 269 272 275 277 278 281 282 282 282 282 280 281 282 283 283 282 282 282 280 277 278 282 282 281 280

GFSNW_sfc_thetae_021.txt.gz
Theta_e
310 310 307 307 308 309 309 301 300 311 312 298 293 293 296 298 300 302 300 300 298 296 296 294 294 294 296 299 300 295 296 291 287 290 295 297 295 292 291 286 284 286 286 285
310 308 307 307 308 309 309 303 304 309 308 292 289 298 299 299 299 299 299 298 299 299 295 292 296 296 300 300 300 296 296 290 284 285 291 294 293 293 292 290 287 285 283 285
309 307 307 308 309 309 306 301 296 302 301 298 296 296 296 297 300 299 299 298 300 297 294 297 295 296 300 301 300 299 299 290 287 283 286 290 288 291 291 291 286 286 287 289
307 306 307 308 308 308 306 299 297 299 292 296 297 298 297 296 295 300 300 298 297 296 290 293 294 297 297 298 299 298 297 289 289 290 291 290 290 290 291 289 290 286 289 290
306 306 306 307 308 308 304 300 299 297 295 298 297 294 296 296 297 298 297 296 298 297 293 294 292 296 296 295 298 296 295 289 289 286 289 289 287 290 290 290 291 290 291 290
305 305 306 307 308 308 304 302 302 301 291 291 292 292 297 297 299 299 300 298 296 292 298 300 301 300 298 298 296 293 292 289 285 283 285 285 283 286 288 290 291 292 287 292
305 305 306 307 307 308 307 303 299 292 289 288 292 297 298 297 298 297 299 299 296 299 302 300 297 293 293 294 294 296 287 286 285 284 283 279 289 293 293 291 292 293 292 293
305 304 307 307 307 309 307 302 300 294 286 290 295 296 296 297 297 297 299 301 300 301 298 291 286 286 284 286 291 292 292 287 284 282 281 286 290 292 291 289 290 293 292 295
304 305 307 307 307 308 309 305 300 297 289 292 298 297 296 292 291 293 297 302 301 297 289 287 283 282 283 286 287 290 289 287 287 284 280 279 288 291 297 295 285 294 296 295
305 308 308 307 305 307 310 308 306 301 292 296 300 296 296 297 294 291 292 298 295 296 287 285 285 286 287 285 280 279 283 284 284 284 281 286 292 293 295 284 288 296 297 296
307 307 308 307 307 306 310 310 308 304 294 299 304 304 298 298 296 292 295 295 292 290 286 286 285 283 286 286 287 284 285 282 281 281 281 279 292 294 289 294 296 297 297 297
306 307 307 307 307 307 309 307 308 306 302 300 306 309 309 306 303 299 295 296 293 294 288 286 285 284 282 284 285 289 285 289 287 287 287 294 294 295 298 298 295 295 295 292
305 306 307 307 308 308 308 306 306 302 292 298 301 301 306 309 309 308 298 293 298 295 297 290 287 286 287 285 284 288 291 293 289 289 294 295 297 300 299 298 294 293 293 291
305 305 306 307 307 307 307 306 304 302 295 287 295 301 302 307 309 309 307 302 299 297 295 287 286 287 294 287 292 290 293 293 291 291 295 297 297 298 295 292 291 290 290 291
305 305 305 306 307 306 306 306 307 306 302 289 291 299 302 302 306 307 305 303 300 297 289 287 288 290 290 290 289 288 295 293 290 289 297 297 294 293 292 289 289 290 290 291
305 305 306 306 306 308 309 301 305 308 307 292 287 296 296 297 301 303 302 302 300 298 293 288 292 297 293 286 286 294 297 299 300 297 299 295 292 291 291 289 290 290 290 289
305 305 305 305 306 309 304 301 301 306 307 291 289 289 292 294 295 295 296 299 301 299 292 288 290 291 294 286 286 295 296 295 292 294 294 291 292 289 291 289 289 289 288 288
305 305 305 306 305 304 302 302 304 307 300 293 287 288 288 294 288 289 293 290 292 291 292 288 289 290 288 286 290 288 290 288 287 288 290 289 289 289 289 290 289 287 287 287
305 305 305 303 300 296 298 302 302 301 299 287 286 286 286 294 290 289 289 290 286 289 286 287 289 286 286 285 285 286 287 288 286 288 288 288 287 287 288 288 287 286 286 286
304 302 297 288 292 302 302 297 291 289 287 287 286 289 287 294 287 286 287 286 285 285 287 289 286 286 286 287 288 288 288 289 290 286 284 286 285 286 286 286 286 286 286 286
297 290 287 295 301 296 290 286 286 285 285 285 287 287 287 291 287 286 287 285 285 282 282 285 284 283 284 287 287 288 288 289 290 290 289 288 287 285 285 285 286 285 285 284
297 296 297 294 290 286 285 284 284 284 284 286 286 286 288 286 290 287 285 284 283 278 282 281 278 282 286 287 287 288 288 288 287 287 285 285 285 285 285 284 284 284 284 282
295 290 286 286 284 283 282 279 280 282 284 286 286 285 286 286 287 284 284 280 279 282 278 277 279 284 287 288 288 286 286 285 283 285 285 285 285 284 282 282 282 281 282 282
286 286 282 281 280 280 279 280 281 284 285 286 286 284 284 283 283 281 279 279 280 277 273 275 281 285 287 287 285 284 284 281 280 283 284 282 281 281 281 279 280 279 280 282
280 282 278 278 280 282 284 285 286 285 286 285 284 282 281 279 279 280 278 276 274 275 275 278 284 285 284 284 285 284 282 279 280 284 282 280 280 279 280 282 281 281 279 279
280 278 277 280 281 281 283 285 285 286 284 283 281 276 277 276 277 276 275 273 271 275 277 281 283 283 284 284 283 283 283 283 283 284 283 282 280 279 282 282 281 280 279 279
277 276 279 278 277 280 280 285 285 286 284 278 276 273 274 275 272 273 276 272 276 278 279 280 282 283 283 283 283 281 281 283 283 284 283 283 283 280 279 279 283 283 283 282

GFSNW_sfc_thetae_024.txt.gz
Theta_e
309 307 307 308 309 309 316 318 307 322 325 309 307 303 302 301 304 306 305 305 303 301 300 299 298 298 300 303 304 298 301 298 292 292 299 301 300 297 296 292 288 292 290 289
308 307 307 308 309 310 322 316 315 321 320 305 304 303 302 304 304 303 303 302 304 304 300 297 300 300 303 304 303 300 301 296 289 290 296 299 297 298 297 295 294 289 287 290
308 307 307 308 309 310 320 315 309 313 314 309 306 303 302 301 305 303 305 303 305 303 300 302 299 300 303 304 303 299 303 297 291 287 290 294 291 294 295 295 290 289 291 293
307 307 307 308 309 309 318 313 309 309 306 305 306 306 303 301 300 305 305 302 303 301 298 299 298 301 301 302 300 303 302 293 295 295 295 295 294 293 294 293 294 289 292 293
306 306 306 308 308 308 316 311 310 309 306 306 306 301 303 302 301 303 301 301 302 302 299 298 297 300 300 298 302 301 301 294 293 291 294 294 292 294 294 294 295 295 295 294
306 306 306 308 308 310 318 314 311 315 298 303 305 303 303 302 305 304 305 305 303 300 302 305 306 306 305 303 300 299 298 296 291 288 291 290 288 292 293 294 296 295 291 296
306 306 307 307 308 312 321 316 313 308 302 304 304 303 304 303 303 303 304 305 303 304 309 307 306 302 301 302 301 302 293 293 290 287 288 283 293 298 298 295 296 298 297 298
305 305 307 307 307 309 317 312 312 309 291 304 302 304 304 304 305 304 304 305 305 310 307 302 293 294 291 293 296 297 300 294 287 285 286 290 293 295 294 292 293 299 297 298
305 306 307 306 305 309 317 314 312 311 295 304 305 304 306 303 304 304 303 306 307 307 304 297 288 290 290 290 292 295 294 295 294 286 283 282 292 297 299 298 289 299 300 299
305 308 307 306 305 309 320 317 316 314 307 306 307 306 305 306 305 304 304 305 304 306 293 287 288 292 293 289 287 287 287 288 286 287 285 289 297 297 298 287 290 299 300 299
308 308 308 307 307 308 319 317 317 315 306 307 309 308 306 306 308 304 305 304 303 297 290 289 290 288 294 292 293 290 291 288 286 286 283 282 298 297 291 297 301 301 302 300
307 308 308 307 307 307 312 317 316 316 314 309 313 314 314 313 310 309 307 305 304 306 298 292 292 289 287 292 289 295 290 294 292 292 292 300 302 299 302 304 302 299 293 290
306 307 308 308 307 308 313 317 316 315 306 309 311 309 312 316 316 316 308 307 307 305 307 302 295 288 297 287 291 295 298 299 294 294 297 299 302 304 301 300 295 294 293 293
306 306 307 307 308 307 312 318 314 313 303 290 305 308 308 311 315 315 315 310 308 307 307 291 290 291 301 296 297 294 298 299 296 296 298 300 301 301 296 292 292 292 292 292
305 306 306 307 307 308 316 319 317 317 313 297 303 307 307 308 311 313 313 312 309 302 294 291 294 302 297 297 294 291 300 298 293 292 299 297 295 292 293 290 289 291 291 292
305 306 306 306 307 308 318 312 318 318 317 302 294 306 303 304 308 310 309 310 309 305 301 294 302 302 300 287 288 298 301 303 303 297 300 296 292 292 291 290 291 292 292 292
305 305 305 306 306 315 311 308 310 310 316 297 292 295 300 300 303 304 305 305 306 306 300 293 298 298 299 287 287 295 294 294 295 299 296 290 292 288 292 292 293 293 292 292
305 305 305 304 304 304 310 310 306 311 305 301 288 291 296 300 296 293 298 296 296 295 297 290 292 293 291 287 293 292 292 290 290 291 296 294 293 292 293 292 291 289 289 289
305 305 305 305 303 298 300 302 305 307 306 290 288 290 289 299 294 294 294 296 289 293 288 289 291 288 288 290 289 289 290 291 291 291 292 290 289 288 289 289 289 288 288 288
304 304 299 289 294 302 303 300 294 291 288 288 287 292 290 298 292 291 292 291 288 286 288 291 286 287 287 290 291 292 292 291 292 289 285 286 287 287 287 288 289 288 288 288
298 291 288 296 301 297 291 287 287 286 285 287 288 288 288 293 289 287 288 286 287 284 288 288 286 286 288 291 290 291 291 290 289 290 289 289 288 288 288 288 288 288 288 287
297 296 297 294 291 286 286 285 285 285 286 287 287 287 289 287 291 287 286 286 286 283 290 284 283 289 290 290 288 289 290 289 289 289 288 289 288 289 289 288 288 288 287 285
297 288 286 286 285 284 284 282 284 285 288 289 287 285 287 287 290 286 286 284 284 287 282 283 287 289 290 289 289 289 290 289 287 288 289 289 289 289 287 286 287 286 286 286
287 285 283 284 284 285 286 287 288 288 288 288 289 286 288 287 285 286 283 283 285 280 279 282 286 289 290 291 290 288 288 288 286 287 288 287 286 286 286 285 285 284 284 285
285 286 282 283 284 286 286 287 288 288 290 291 288 287 289 285 283 285 282 280 279 281 282 286 290 291 290 288 289 289 288 286 285 287 287 286 285 285 286 287 287 286 285 284
286 284 282 283 285 284 285 286 286 288 286 286 288 284 283 282 283 280 280 279 279 283 287 290 291 288 287 288 288 287 287 286 286 287 287 287 286 285 286 287 286 285 285 284
285 282 285 284 285 286 286 288 289 288 287 285 284 281 280 281 280 279 282 281 285 288 288 288 288 287 287 287 287 286 286 286 287 288 288 287 288 287 285 285 287 287 286 285

GFSNW_sfc_thetae_027.txt.gz
Theta_e
308 308 308 308 309 310 313 321 308 328 331 308 310 306 305 303 306 309 307 307 305 303 303 301 301 300 303 306 305 300 302 299 294 295 301 303 302 299 299 293 290 294 292 290
308 308 308 308 309 310 327 315 315 327 326 306 305 307 305 307 306 306 306 304 306 307 304 299 302 303 306 306 305 303 303 299 292 294 298 302 298 299 299 297 295 289 288 291
308 308 308 308 309 310 323 317 310 315 317 316 308 305 305 303 308 306 308 306 308 306 303 305 302 302 305 307 306 301 303 299 294 290 293 297 294 296 297 296 291 291 292 294
308 307 307 308 309 310 322 318 313 314 307 309 309 309 307 304 302 307 308 305 305 304 300 302 301 304 304 305 300 304 304 295 297 297 297 297 296 295 296 294 295 291 294 295
307 307 306 308 309 309 322 314 313 316 314 311 309 303 305 304 304 305 303 304 306 305 302 301 300 302 301 301 304 303 303 296 296 293 296 296 293 295 296 296 296 296 295 294
307 306 307 308 308 310 321 321 320 318 303 310 307 306 306 305 307 307 307 308 305 303 304 308 309 309 307 305 302 301 300 298 293 290 294 293 290 294 295 296 297 296 292 297
306 306 307 307 307 310 325 323 321 315 306 308 307 306 307 306 306 305 308 309 306 308 312 311 309 307 305 305 304 305 299 296 293 289 289 284 295 300 299 297 298 299 299 300
305 306 307 305 306 309 323 320 319 314 296 309 307 307 307 308 309 307 307 308 311 314 309 303 296 295 291 296 300 301 303 298 290 287 288 291 294 297 296 295 294 300 299 301
306 308 307 305 306 309 322 320 321 318 300 308 310 308 309 307 307 307 306 310 313 313 308 299 289 291 292 293 295 299 299 301 295 288 284 283 294 299 301 300 290 301 302 300
306 309 308 308 307 309 323 322 324 319 313 312 311 309 309 311 310 307 308 308 308 311 298 290 290 294 296 291 289 287 289 290 288 288 286 291 298 300 301 288 292 302 302 299
309 309 308 308 308 308 320 321 323 320 313 312 313 312 310 310 310 306 309 307 307 306 291 290 294 291 297 295 296 293 290 288 287 289 285 283 300 299 293 299 304 301 300 297
308 309 308 308 308 308 311 319 322 323 317 314 318 318 318 316 315 313 312 307 308 308 302 295 297 292 292 294 291 299 292 296 293 294 294 302 303 301 304 305 301 299 294 294
307 308 309 308 308 308 313 321 322 322 314 313 314 312 316 319 320 321 311 313 311 311 314 306 298 289 299 288 294 297 299 302 297 296 299 299 301 304 303 301 298 296 296 296
307 307 308 309 308 309 314 321 322 319 309 293 309 312 313 315 319 319 319 315 315 314 312 295 293 291 305 299 300 298 300 301 298 297 300 301 300 298 297 295 294 293 294 294
306 307 307 309 309 310 320 323 322 321 315 301 308 311 311 312 315 315 316 314 312 310 297 291 294 306 304 303 300 297 302 299 296 293 299 298 295 295 294 292 293 293 293 294
305 306 307 307 308 309 321 314 322 322 321 308 297 310 307 309 312 313 312 313 311 311 304 296 306 306 303 289 291 299 302 304 303 300 298 295 294 293 293 293 294 294 294 293
305 305 306 306 307 320 313 309 314 310 322 304 294 300 305 305 309 310 310 308 307 307 306 300 303 303 302 293 290 299 300 299 299 299 297 290 291 293 295 295 295 294 293 293
305 305 304 304 304 306 313 315 310 313 313 308 289 294 299 304 300 297 304 301 302 303 303 296 297 302 299 290 298 300 298 295 294 296 298 298 297 295 295 294 293 291 290 291
304 304 305 308 306 303 313 303 309 315 311 292 288 289 288 303 297 297 297 301 291 297 289 291 295 291 290 296 297 294 293 293 293 295 295 293 291 290 291 291 291 289 289 289
304 306 302 290 296 303 304 306 298 296 297 294 290 302 293 300 294 292 292 294 291 287 290 292 286 287 290 294 296 296 295 295 295 293 289 289 288 289 289 289 290 290 289 289
299 291 288 298 302 300 293 288 289 288 286 289 294 297 294 298 292 290 293 287 288 286 289 289 288 288 293 294 293 294 295 295 292 292 291 291 290 289 289 290 290 290 289 288
297 296 298 296 292 287 288 286 286 286 288 288 287 288 291 289 294 288 286 286 286 285 293 286 283 292 294 294 293 293 293 292 291 291 290 290 290 291 290 290 289 289 289 287
296 289 286 286 285 284 284 283 286 286 287 288 287 285 287 287 290 285 286 285 286 291 284 284 290 292 293 293 293 292 293 291 289 289 290 290 290 290 289 288 289 288 288 289
286 285 284 285 284 286 287 289 289 289 289 289 287 286 286 287 286 286 285 286 288 282 280 283 291 292 293 293 293 292 291 289 288 289 289 289 289 289 289 287 287 286 286 288
286 286 283 284 286 287 287 287 289 289 291 291 289 289 291 287 285 287 285 282 281 283 285 290 293 293 292 292 291 291 290 289 288 289 289 288 288 288 288 289 289 289 287 286
287 286 284 286 286 285 286 286 286 290 291 292 291 287 285 284 286 283 282 282 281 286 290 293 294 292 291 291 290 289 289 288 288 289 288 289 289 287 289 290 288 286 286 285
287 284 288 287 287 286 286 289 288 290 289 285 287 283 282 284 283 281 286 284 287 291 292 293 292 290 289 289 289 288 288 289 289 289 289 289 290 289 288 286 289 290 290 287

GFSNW_sfc_thetae_030.txt.gz
Theta_e
308 308 308 308 310 311 316 328 306 330 334 307 308 305 306 302 306 309 307 307 304 303 303 301 301 301 304 306 306 300 301 300 295 295 301 303 301 298 298 294 290 294 292 290
308 307 307 308 310 310 326 312 315 328 328 304 306 308 306 307 305 306 306 305 307 308 304 300 303 303 306 306 306 302 303 299 293 294 298 302 297 298 298 297 296 289 287 289
308 308 308 308 310 311 320 319 310 312 316 317 308 305 304 304 310 308 308 307 308 306 304 305 302 302 305 307 305 302 304 299 294 291 293 296 293 295 297 296 291 291 291 293
307 307 307 308 309 310 319 319 311 312 306 308 309 307 306 304 302 308 309 305 305 304 301 302 301 304 304 305 301 304 304 296 298 297 297 296 294 294 294 293 294 289 293 293
307 307 307 308 309 309 321 314 312 315 313 311 309 304 305 304 305 306 304 304 306 306 302 302 301 303 302 301 304 303 304 297 297 293 296 295 292 293 295 295 295 295 295 294
306 306 308 308 308 311 323 321 322 319 305 310 308 307 306 306 308 308 309 307 306 303 305 308 308 308 306 305 303 301 301 299 294 290 294 292 289 294 295 295 297 296 292 297
306 306 307 306 306 309 326 325 321 315 308 309 306 307 308 306 307 305 308 309 307 309 311 310 308 306 305 304 304 306 299 297 293 288 289 283 294 299 298 296 297 298 298 299
306 306 307 306 307 308 325 324 322 314 295 309 308 308 307 309 309 307 308 309 311 313 309 304 295 296 291 295 301 301 304 298 290 287 287 291 294 297 296 294 293 299 299 300
306 309 308 307 308 310 324 322 326 321 302 308 310 308 309 307 307 307 306 312 315 312 308 297 290 291 294 293 295 300 300 301 295 289 283 282 294 299 302 300 289 301 300 299
306 309 308 308 308 309 322 322 328 321 315 314 314 310 309 312 310 307 307 307 308 312 297 287 288 293 297 292 289 287 289 290 287 288 285 289 298 300 301 287 291 301 299 297
309 309 308 308 308 309 319 322 327 323 313 313 315 314 312 311 313 307 309 307 308 306 290 289 293 291 298 296 297 292 289 287 286 288 285 283 301 300 292 299 303 301 299 297
309 310 309 308 308 309 311 319 324 327 318 315 321 319 318 317 316 313 313 308 308 308 300 296 298 291 291 293 293 299 293 297 295 293 292 302 304 302 304 303 299 298 297 297
308 310 310 309 308 310 313 323 324 324 318 313 314 312 317 320 320 323 311 316 312 311 314 303 296 286 299 287 294 297 299 302 299 298 299 300 302 302 301 300 297 297 296 296
307 308 311 310 309 310 313 321 323 320 309 291 310 315 314 317 320 320 320 316 318 316 311 294 291 289 304 298 299 299 301 301 298 297 300 302 300 299 298 296 296 295 295 294
307 307 309 312 311 310 321 323 322 322 316 299 308 312 312 314 316 316 317 316 313 309 295 290 292 306 304 304 301 297 301 298 296 294 301 300 298 296 296 295 294 294 293 293
306 306 308 308 308 308 321 313 321 322 322 306 294 311 308 310 313 313 313 313 313 312 302 296 305 308 304 290 292 299 301 303 303 301 301 300 297 296 297 295 294 295 294 293
305 305 306 307 308 318 312 308 312 310 320 302 292 301 306 307 310 310 309 310 309 308 305 299 302 304 303 290 290 298 301 302 302 300 298 293 294 295 296 296 295 294 293 292
304 304 304 304 303 306 312 313 310 312 313 308 289 295 300 305 302 298 304 300 303 305 302 297 297 302 297 290 298 300 302 299 299 299 299 299 298 297 295 294 292 290 290 290
304 304 305 310 309 310 312 304 307 319 312 291 288 289 289 304 298 298 298 301 289 298 290 292 297 291 289 295 298 300 297 295 296 297 296 295 293 291 291 291 290 289 289 289
304 308 302 290 298 303 304 311 303 300 298 295 289 301 293 300 294 291 291 293 289 287 290 294 287 288 297 298 299 300 297 297 296 293 290 290 289 289 289 289 290 290 289 289
300 292 288 297 302 304 296 291 290 290 288 292 295 300 293 300 291 289 293 287 288 285 290 289 287 287 294 297 295 297 297 297 295 294 293 292 290 289 289 290 291 290 289 288
297 297 298 296 291 287 289 287 286 286 289 288 287 290 295 292 298 290 287 287 286 285 292 286 284 292 294 294 294 295 295 294 292 292 290 290 290 290 290 290 289 288 288 284
296 290 288 287 285 284 284 283 285 286 286 287 287 285 287 288 290 285 285 284 285 290 285 283 288 293 294 294 294 293 294 290 290 290 290 290 289 289 288 287 288 286 287 287
286 285 283 285 284 285 286 286 286 288 289 287 287 285 286 285 285 285 284 285 287 283 281 283 290 292 294 294 294 292 291 286 288 290 290 288 287 287 286 285 285 283 285 286
286 286 283 284 286 286 286 286 287 287 289 288 286 286 287 285 284 285 285 282 281 283 284 288 292 294 293 292 292 291 289 286 286 290 287 285 285 286 287 287 287 288 285 285
288 286 285 286 285 285 285 285 285 288 288 289 289 285 285 284 285 283 283 282 281 285 289 292 293 292 292 292 290 289 289 288 288 289 288 287 285 285 288 289 287 286 286 285
285 285 287 288 286 285 285 287 286 290 288 285 287 284 281 285 283 282 286 284 287 291 292 292 292 290 291 290 289 287 287 288 289 289 288 288 288 287 286 286 288 288 288 286

GFSNW_sfc_thetae_033.txt.gz
Theta_e
308 307 307 308 310 311 313 314 299 322 324 300 301 296 304 302 304 308 307 305 302 301 300 299 298 298 300 304 303 297 297 295 287 292 298 300 297 295 295 283 285 285 282 283
308 306 307 307 309 310 317 307 309 321 321 292 295 302 305 306 303 304 304 303 305 305 301 296 301 300 305 305 302 298 298 292 283 289 294 298 293 295 295 294 287 283 277 282
307 307 307 307 309 310 314 311 298 308 310 309 303 301 301 302 307 306 306 304 305 303 300 302 299 299 305 305 302 301 301 295 289 283 288 292 289 292 292 291 281 283 285 289
307 307 306 308 309 310 314 313 304 304 295 299 303 303 303 302 301 306 306 303 303 301 294 298 298 301 301 304 301 301 299 290 294 294 294 293 291 291 290 288 289 283 287 290
306 306 306 308 309 309 313 311 308 306 301 302 302 300 300 302 303 303 302 301 303 303 298 299 297 300 299 298 300 299 300 289 289 286 294 293 289 291 292 292 292 291 291 290
306 306 307 304 306 310 314 313 315 311 301 300 300 300 303 304 305 305 307 304 301 297 301 302 302 302 301 302 298 296 296 288 284 281 289 286 281 289 291 292 293 292 286 292
306 305 306 305 305 310 319 317 316 301 294 301 302 306 305 305 304 302 306 306 301 304 306 303 302 299 299 302 299 303 290 288 285 277 282 272 291 296 296 294 294 295 296 296
306 307 307 308 307 309 317 316 315 301 289 304 304 304 304 305 305 303 304 306 307 307 305 292 286 286 285 291 298 298 299 287 279 280 279 285 290 295 293 291 290 297 295 296
305 308 308 308 308 309 317 316 317 309 294 298 309 303 304 299 299 300 302 308 309 309 295 285 280 281 287 288 292 295 298 291 282 275 272 272 287 296 298 296 282 297 296 294
307 308 308 307 308 309 318 315 318 315 302 306 308 302 301 306 303 296 301 302 301 303 289 285 280 282 294 285 284 281 282 285 278 275 273 282 294 298 299 281 284 296 296 294
310 308 308 307 308 309 316 313 318 315 303 307 312 312 307 309 306 294 302 296 296 291 286 281 284 284 286 286 292 286 282 280 282 283 278 276 298 298 287 292 296 296 294 294
309 309 308 308 308 309 311 311 318 319 311 308 313 312 313 313 312 306 303 299 302 299 290 289 287 286 287 285 282 295 285 289 284 286 284 294 298 297 298 298 295 295 295 295
308 311 309 308 308 309 312 314 316 314 303 306 307 306 311 314 314 316 302 301 307 305 304 294 293 286 289 281 284 288 294 299 288 290 295 296 297 297 298 297 294 295 295 295
308 309 310 308 308 309 314 314 316 309 302 289 301 311 308 313 315 314 313 310 309 306 299 290 289 286 296 286 289 289 293 297 293 290 294 296 296 296 295 295 295 294 296 294
307 308 309 307 308 308 316 316 316 315 308 292 294 308 309 311 312 312 313 310 306 297 291 287 287 289 291 288 290 287 298 294 286 285 296 295 293 294 295 292 292 294 292 291
306 306 308 308 308 308 316 307 313 312 314 295 290 304 304 306 308 309 308 308 305 302 294 289 296 303 293 286 284 296 299 299 299 297 296 295 294 294 295 296 295 293 291 290
305 305 306 306 306 309 306 302 307 305 310 293 288 294 300 303 305 303 303 303 301 300 293 290 292 294 294 286 286 295 298 299 297 296 294 290 291 292 297 296 295 292 290 289
304 305 305 304 304 305 307 307 307 307 302 296 287 288 290 302 292 290 298 293 297 297 294 292 290 291 288 286 294 297 299 297 295 295 297 295 296 296 295 295 290 288 287 287
304 305 307 308 305 302 305 304 304 309 302 287 287 285 284 299 293 291 291 295 287 293 287 288 292 287 288 292 295 296 295 294 295 297 298 296 295 290 289 288 288 286 286 286
305 307 302 290 296 302 305 303 296 292 291 290 288 292 289 295 288 287 288 287 286 285 287 292 286 287 292 295 296 295 294 296 296 292 290 289 288 287 287 287 287 287 285 285
301 293 288 296 302 300 292 287 287 288 288 288 292 291 291 295 287 286 288 286 286 284 286 287 285 285 290 293 293 294 296 296 296 293 290 289 288 287 286 286 286 284 284 283
297 297 298 295 291 288 288 286 286 286 287 287 287 288 291 288 293 287 286 285 285 282 289 285 282 286 290 291 292 294 296 294 291 290 288 288 288 288 285 284 283 284 283 279
296 291 288 287 285 285 286 285 285 285 285 287 286 285 286 287 288 285 285 284 284 287 284 280 283 291 292 292 292 290 288 287 287 288 289 288 287 286 283 283 283 279 282 283
286 285 283 284 283 283 283 284 285 286 286 286 286 285 285 285 285 285 283 284 284 282 277 276 286 291 292 291 291 289 286 283 285 285 285 283 283 282 280 279 280 277 280 283
285 286 282 282 284 285 285 285 286 286 287 286 285 285 285 284 283 284 283 280 279 281 281 284 287 289 288 288 289 286 284 280 282 284 282 279 278 280 282 282 283 283 280 279
286 285 283 284 285 284 285 285 285 286 286 286 286 284 284 282 283 281 281 280 279 282 284 287 288 288 288 287 286 285 285 284 284 284 284 284 280 279 283 284 281 280 280 278
285 283 286 286 285 284 285 285 285 288 286 284 284 281 279 283 280 280 284 281 283 285 285 287 287 286 286 285 285 283 285 285 285 285 285 285 285 281 280 281 285 284 284 280

GFSNW_sfc_thetae_036.txt.gz
Theta_e
307 306 307 307 309 310 312 308 297 316 312 294 297 293 301 302 302 305 303 303 302 298 297 297 297 296 298 303 302 294 296 292 285 290 295 297 295 293 292 282 283 283 281 282
307 306 307 306 309 310 312 304 307 317 308 287 291 298 303 303 301 301 301 301 303 302 298 295 298 298 303 302 300 296 296 290 282 287 293 296 292 293 293 291 285 283 276 281
306 306 306 306 309 310 313 307 296 303 307 302 297 297 299 300 305 303 304 302 303 300 298 301 297 297 302 302 299 299 300 293 287 283 287 290 286 289 290 289 280 282 283 287
306 305 306 308 309 309 311 308 299 299 291 295 301 300 301 299 299 304 304 300 301 299 293 296 296 299 299 301 300 299 297 288 291 291 291 291 289 288 288 286 286 282 285 287
305 305 306 308 308 309 310 306 304 302 296 298 299 298 299 300 301 301 300 298 301 300 296 297 295 298 296 295 297 296 297 287 287 284 291 290 286 288 290 290 289 289 289 289
305 305 304 304 305 308 310 314 314 305 298 295 297 297 299 301 303 303 305 302 298 294 299 299 299 299 300 300 296 295 293 286 282 279 286 284 280 287 289 290 291 290 285 290
305 305 304 305 304 308 319 315 310 299 292 297 298 303 303 302 302 300 303 303 298 302 305 300 297 296 298 299 298 299 289 285 281 276 278 271 287 294 294 292 293 294 293 294
305 306 307 307 307 308 314 313 309 298 288 300 301 302 302 302 303 301 302 304 303 305 300 288 285 285 285 290 296 296 295 284 280 273 277 282 288 293 292 289 289 295 294 294
306 308 307 307 307 308 313 312 313 303 294 297 307 301 302 297 296 297 301 306 308 301 290 283 280 280 283 286 290 294 294 287 280 280 271 270 284 294 297 294 283 296 295 293
309 308 307 307 307 309 313 312 314 309 299 303 305 299 300 303 298 293 298 300 299 297 281 276 277 282 290 284 282 280 282 278 277 273 270 280 289 295 296 281 284 295 295 293
308 307 307 307 307 308 311 311 313 310 299 305 309 309 304 304 300 293 299 295 293 289 282 278 279 282 284 284 290 285 283 279 276 277 271 276 295 295 287 290 294 294 293 293
308 307 307 307 307 308 312 307 314 315 307 306 310 310 310 311 308 303 299 296 297 294 288 284 288 285 287 283 281 292 284 287 283 285 284 291 296 294 296 297 293 293 293 293
308 308 307 307 307 309 313 311 312 308 299 303 305 304 310 312 311 312 299 298 305 301 296 291 285 281 287 282 284 287 292 296 287 288 293 295 295 296 296 296 294 295 296 295
307 307 306 307 307 309 312 310 311 304 298 288 299 309 306 311 312 313 310 307 304 300 295 290 289 283 292 283 286 287 290 295 291 288 293 294 295 294 294 294 295 295 295 294
306 307 307 307 307 309 313 311 309 310 300 292 291 305 308 308 310 310 309 306 302 295 289 287 287 287 288 283 287 285 296 292 286 286 294 293 292 293 294 294 293 294 293 291
305 306 307 306 306 310 310 302 310 308 307 294 287 301 301 304 308 307 306 306 302 297 292 288 293 299 289 286 286 294 298 299 298 295 296 294 293 294 296 294 294 295 290 288
305 305 304 304 306 306 303 298 305 305 304 292 288 287 297 301 303 300 300 300 298 298 290 288 289 291 292 285 284 293 296 297 296 295 294 290 291 292 297 296 293 290 288 287
305 305 304 304 306 306 304 304 304 304 297 292 286 289 288 298 289 289 294 290 292 294 293 289 286 289 287 286 292 295 296 295 294 294 295 294 295 296 295 293 289 287 286 286
305 306 305 305 302 300 302 302 302 303 298 287 283 283 284 296 292 289 288 292 286 291 287 288 288 287 286 291 293 294 294 293 293 296 296 296 295 292 289 287 287 286 285 285
305 304 298 290 296 302 303 299 293 291 290 289 284 288 287 293 286 286 286 286 286 285 285 291 286 287 290 292 294 294 294 295 297 293 289 288 286 287 287 287 287 285 284 284
302 294 289 296 301 298 292 287 287 288 288 288 291 287 289 293 286 286 285 285 285 283 284 286 284 285 288 291 292 295 295 295 294 291 289 289 288 286 286 285 285 283 283 283
299 297 298 296 290 287 287 286 286 286 287 287 287 287 290 288 289 287 286 285 285 281 286 285 282 286 289 291 293 294 292 290 289 289 288 287 287 286 284 283 282 283 282 277
297 291 287 289 286 286 286 285 284 285 285 286 286 286 286 287 288 285 285 284 283 287 284 281 283 289 291 291 288 288 288 287 287 288 288 286 285 285 283 282 283 278 281 283
287 286 283 285 282 283 283 284 285 285 285 285 285 285 285 285 285 285 283 284 284 281 276 274 286 290 291 290 288 286 285 282 284 284 285 283 283 281 279 277 278 275 279 282
285 286 281 281 283 284 285 285 285 285 286 286 285 285 285 284 283 284 282 280 278 280 279 283 286 289 287 287 287 285 283 281 283 284 281 278 277 278 281 281 281 282 279 278
284 285 282 284 284 284 285 285 284 286 285 286 285 284 283 281 282 280 280 279 277 279 284 286 288 287 286 285 285 284 285 283 283 283 283 283 278 277 282 283 281 279 278 278
284 283 286 285 285 284 285 285 285 287 286 283 284 279 277 282 279 279 282 279 282 285 285 287 287 286 285 284 285 283 284 285 284 284 284 284 284 280 279 280 284 283 283 279

GFSNW_sfc_thetae_039.txt.gz
Theta_e
307 306 307 307 308 310 311 304 295 313 306 293 294 294 299 301 300 303 302 301 299 295 295 295 294 294 296 301 299 292 295 290 284 288 294 296 292 291 289 280 282 282 280 281
307 306 307 307 309 310 310 302 306 316 303 287 290 296 300 301 299 299 300 299 301 300 297 293 296 296 301 299 298 294 294 288 281 286 291 294 290 291 292 288 284 282 275 280
306 306 306 307 309 310 311 303 295 302 305 296 295 294 296 298 303 301 302 300 301 298 296 298 294 295 300 299 297 299 298 291 285 282 286 288 285 287 289 287 280 282 282 284
306 306 306 307 309 309 310 304 297 298 291 296 299 297 298 297 296 301 301 298 299 297 292 294 294 297 297 298 299 297 294 288 289 289 289 288 287 287 287 285 285 281 283 286
305 305 305 308 309 308 307 304 301 299 293 297 299 296 297 298 299 299 297 297 299 297 294 296 294 296 294 292 295 294 295 286 286 284 289 288 285 287 287 287 287 286 287 287
305 304 305 304 307 309 306 307 309 302 295 294 293 295 298 299 301 301 302 300 296 293 296 298 298 298 298 297 295 293 290 285 281 277 284 282 277 285 288 288 289 289 285 289
305 304 304 304 306 308 315 311 307 297 290 292 295 300 300 300 300 299 301 300 297 299 301 297 296 295 296 297 296 296 287 283 279 275 277 272 285 291 291 290 291 291 291 292
305 307 307 305 304 306 316 312 306 297 286 297 299 301 300 300 300 299 300 302 301 302 295 287 285 283 285 289 294 293 292 283 279 274 276 280 286 291 291 288 288 293 292 292
306 307 306 307 307 308 314 312 308 302 295 296 303 300 300 296 294 296 298 304 304 298 287 282 279 279 282 285 289 293 290 285 280 278 270 270 283 292 295 292 282 294 294 292
308 307 306 306 307 310 313 312 311 306 297 301 303 298 298 300 296 292 297 297 297 295 280 275 277 281 287 283 281 280 282 277 277 270 270 279 287 293 294 281 282 294 295 294
308 307 307 307 307 310 312 310 311 308 300 303 306 307 302 301 297 292 297 294 292 286 282 278 278 276 283 284 287 285 283 278 276 277 271 276 292 292 286 289 291 295 293 292
308 307 307 307 307 310 310 308 313 312 306 304 308 307 308 308 304 301 297 296 295 293 285 281 281 283 286 281 280 289 282 285 283 284 283 290 293 292 293 295 293 293 293 293
306 307 307 307 308 310 312 309 308 305 299 302 303 303 309 310 309 309 298 296 301 296 294 290 283 279 285 282 283 285 290 293 285 286 290 291 294 294 295 295 293 293 294 294
306 306 306 307 309 309 311 308 306 302 296 288 298 307 305 309 311 311 308 304 300 297 293 288 285 280 289 281 285 287 289 293 289 287 291 292 294 294 293 293 294 294 295 295
306 306 306 307 309 310 311 308 306 306 299 291 290 302 305 307 310 308 307 304 300 294 289 286 286 286 287 283 286 284 293 290 286 285 292 292 292 293 293 292 293 294 294 290
305 305 305 306 308 309 304 299 307 307 303 294 287 298 299 303 305 304 303 304 299 294 291 287 289 296 289 286 287 293 296 297 295 293 294 292 291 292 294 293 294 294 291 287
304 303 304 305 306 307 301 296 302 305 301 292 288 286 296 299 300 297 298 298 297 296 292 287 289 290 291 286 285 292 295 296 295 294 294 290 290 292 295 295 294 290 287 287
305 303 304 305 305 305 303 303 302 302 295 291 286 285 287 296 289 289 294 290 292 292 292 289 284 289 288 286 291 293 294 294 292 292 294 294 294 295 294 289 288 286 285 285
305 304 304 304 302 299 302 302 302 300 297 286 281 284 283 293 291 288 288 291 286 290 286 288 288 286 286 290 291 291 292 292 292 293 294 294 293 290 288 288 287 285 284 284
303 303 297 291 297 302 302 297 291 290 290 289 285 288 287 293 286 286 283 287 281 285 282 291 286 287 289 290 292 293 293 293 294 291 286 286 286 287 287 287 286 285 284 284
299 293 290 297 301 297 291 287 286 288 288 288 288 287 289 291 287 285 284 282 285 282 281 283 281 284 287 290 290 291 291 292 291 291 290 290 289 288 286 285 284 284 283 283
297 296 296 293 289 288 287 285 286 287 286 287 287 288 290 288 288 285 286 283 285 281 287 284 282 286 289 292 289 288 290 291 292 293 291 289 286 285 284 283 282 282 282 277
296 291 288 287 285 286 286 285 285 285 285 287 286 286 286 287 287 285 285 284 283 286 284 282 284 289 289 289 288 289 291 290 288 287 286 286 285 284 283 282 282 279 281 282
287 286 285 285 283 283 283 284 285 285 285 285 286 285 285 285 285 285 284 284 285 282 279 276 286 290 291 290 288 285 284 281 283 284 284 283 282 281 279 277 276 275 279 282
285 285 281 280 283 284 285 285 285 285 286 286 286 285 286 284 283 284 282 280 277 277 275 283 285 290 287 285 285 283 283 279 281 283 280 278 277 278 280 280 280 281 277 277
285 285 282 284 284 284 285 285 284 286 285 286 286 284 281 280 282 278 278 277 273 275 283 286 287 288 286 285 284 284 284 284 283 283 283 283 278 276 282 282 280 278 277 277
284 283 285 285 285 284 285 285 285 287 285 283 284 279 277 281 278 277 280 275 278 282 284 286 286 285 284 284 285 284 283 284 284 284 283 283 283 279 279 280 283 283 283 279

GFSNW_sfc_thetae_042.txt.gz
Theta_e
307 307 306 307 306 309 310 301 294 311 303 293 292 292 297 300 299 301 300 299 296 293 294 293 292 293 295 299 298 291 293 289 284 287 292 294 291 289 287 279 281 281 279 280
307 306 306 307 307 310 308 301 305 314 301 288 289 295 298 300 297 298 298 297 299 298 295 292 294 295 299 297 295 293 293 287 281 285 289 291 289 289 289 286 283 281 274 279
306 306 306 307 308 310 308 302 296 301 301 294 294 293 294 296 300 299 300 298 299 297 295 296 293 294 298 297 295 299 297 289 285 282 283 287 284 286 288 286 279 281 281 282
306 306 306 307 308 309 310 300 296 299 292 296 293 294 296 296 295 299 300 297 297 295 291 292 292 295 295 296 298 296 292 286 287 287 287 287 285 285 286 285 284 282 282 284
305 306 306 306 308 309 306 302 297 295 292 299 296 294 295 296 297 297 295 296 297 296 293 294 292 295 292 289 294 292 293 285 286 285 287 286 284 286 286 285 284 285 285 285
305 305 305 307 308 309 305 306 306 299 293 294 294 294 296 298 300 300 300 298 295 292 295 297 297 296 296 295 293 291 289 284 282 279 282 281 277 284 286 286 287 287 284 288
305 305 305 305 308 309 311 309 305 296 287 290 295 298 298 298 298 298 299 298 295 297 298 297 295 294 295 296 294 293 285 282 278 274 276 270 283 288 289 288 289 290 289 290
305 304 304 305 306 307 312 310 304 296 285 292 296 298 298 299 299 298 299 300 299 299 293 287 286 283 286 288 291 290 289 282 277 273 275 280 284 289 288 287 286 292 290 291
306 306 305 303 305 305 312 310 306 301 293 294 301 298 297 294 293 294 296 301 300 295 285 282 279 279 284 284 287 291 288 284 280 273 270 270 282 289 293 291 282 292 292 291
306 306 306 306 307 308 313 310 310 304 297 299 300 297 297 298 295 291 295 297 295 293 280 275 276 279 285 282 281 281 280 277 275 269 269 279 285 291 292 282 283 292 293 292
306 306 306 307 307 309 315 310 311 306 299 301 304 305 300 299 296 292 296 294 292 285 282 278 278 277 283 283 286 285 283 280 279 275 269 276 290 291 286 289 289 292 292 292
307 306 306 307 309 309 313 311 311 309 304 303 306 305 306 305 301 299 295 296 294 292 284 278 278 279 284 281 279 288 282 285 281 283 282 289 291 290 292 292 292 291 292 291
306 307 306 307 309 309 311 310 304 305 299 301 302 301 307 308 307 306 296 295 298 294 292 286 282 279 283 279 282 284 288 290 284 285 288 289 291 293 294 294 293 293 294 293
305 306 306 307 308 309 309 306 304 301 297 289 297 305 303 307 309 308 305 301 297 294 291 284 283 280 287 281 284 285 288 290 287 286 290 291 294 294 293 293 293 294 294 293
306 307 308 308 308 309 309 306 304 303 298 291 290 301 303 305 307 305 304 301 298 292 288 286 286 285 285 285 284 284 290 289 285 285 291 291 291 292 293 292 292 294 292 289
303 305 306 306 307 306 302 299 304 305 301 295 287 297 297 301 303 302 301 301 296 293 291 286 289 293 288 286 286 292 294 295 293 291 292 292 289 290 292 293 293 293 288 288
304 305 306 306 306 306 298 294 301 301 299 292 287 286 294 296 298 295 295 295 294 294 291 287 289 290 290 286 284 291 294 294 293 292 292 288 289 290 294 293 290 289 287 287
304 305 305 305 305 304 302 302 302 301 294 291 285 284 287 295 290 290 294 290 291 292 292 289 286 289 287 286 290 292 293 291 292 291 292 293 293 290 287 288 287 286 285 286
304 304 304 304 301 299 301 302 301 298 296 283 279 283 282 292 290 288 290 290 286 290 286 288 287 286 285 288 289 291 291 291 290 291 291 290 286 286 287 287 288 286 285 285
303 303 298 290 297 302 301 296 291 290 289 288 284 288 286 292 287 286 282 286 281 277 281 290 286 286 289 288 289 290 290 291 292 286 284 286 287 288 289 288 287 285 284 284
299 294 290 297 300 297 290 286 286 287 286 289 288 288 288 292 287 285 283 282 284 280 279 285 283 284 285 288 286 289 290 290 290 291 291 291 290 288 286 284 284 283 283 282
299 297 297 294 291 288 287 285 286 286 284 287 287 287 290 287 286 286 285 278 284 280 286 284 281 285 288 287 289 291 292 292 292 293 291 290 287 285 284 282 282 282 282 279
294 290 286 287 283 286 286 284 285 285 286 287 286 286 286 287 287 285 286 284 282 285 283 282 284 286 287 288 290 290 290 289 286 286 286 285 284 283 283 282 283 280 281 282
286 285 286 285 284 283 283 285 285 285 285 286 286 285 285 285 285 285 284 284 285 281 280 277 285 288 289 290 288 285 283 281 283 283 283 282 282 281 279 277 276 274 278 281
285 286 281 281 283 284 285 285 285 285 286 286 286 285 286 284 284 284 283 280 275 275 273 282 285 289 286 284 283 283 282 279 281 283 280 277 277 278 280 280 280 280 277 277
285 284 280 284 284 283 285 285 285 286 285 286 286 284 282 281 281 278 278 276 272 275 283 285 287 286 284 283 283 283 283 283 283 283 283 282 278 276 281 281 279 278 276 276
284 283 285 285 285 284 285 285 285 286 285 283 283 277 276 280 275 275 278 272 280 284 285 286 286 284 283 283 284 282 283 283 283 283 283 283 283 278 279 280 283 282 282 279

GFSNW_sfc_thetae_045.txt.gz
Theta_e
310 309 309 307 307 307 308 303 296 314 307 296 294 292 296 300 301 302 302 300 298 296 297 296 295 295 298 301 301 297 297 293 290 291 296 298 296 294 293 288 285 286 286 288
309 308 307 307 306 310 308 299 305 314 304 291 291 296 299 301 299 300 301 300 301 301 297 294 296 297 301 299 299 297 297 291 287 289 293 296 294 294 291 289 289 286 286 287
308 307 307 306 306 309 310 305 298 304 301 297 295 295 295 297 302 302 302 300 301 300 297 298 295 297 300 300 299 299 299 291 290 287 289 292 290 291 291 291 287 286 287 288
308 307 307 306 306 308 308 302 299 302 295 295 295 297 297 297 297 302 302 300 300 298 294 295 295 297 298 299 299 298 297 291 291 290 290 290 289 289 290 289 289 288 289 288
307 307 306 306 306 308 308 300 297 296 296 299 296 296 296 297 299 300 299 298 299 299 296 297 295 297 296 294 298 297 295 290 290 288 289 288 288 289 289 289 288 289 288 288
306 306 306 306 307 309 307 307 305 300 293 296 293 294 297 298 301 301 301 300 298 296 299 300 299 299 298 297 297 294 292 290 287 284 285 284 284 288 290 289 290 291 288 293
306 305 305 305 308 309 311 309 305 296 288 294 294 298 299 299 300 299 301 301 299 300 302 300 299 298 297 297 294 295 289 286 283 283 280 279 289 292 291 291 291 292 293 294
305 305 304 305 308 308 313 310 305 297 286 293 295 298 299 300 300 300 300 301 301 301 297 293 290 289 289 290 292 291 291 287 281 283 281 284 287 289 291 290 290 295 294 294
304 304 304 305 307 307 313 311 308 302 293 292 299 299 299 296 295 297 299 302 301 297 289 288 285 286 289 287 291 293 290 288 288 280 281 278 287 291 296 295 288 294 296 294
303 303 304 305 307 306 313 311 309 307 299 302 302 298 298 299 297 294 297 298 299 297 287 284 286 286 288 286 284 284 287 284 285 277 282 284 289 293 296 286 289 295 297 296
305 305 304 305 306 307 313 310 312 309 301 303 306 307 300 299 299 295 298 297 296 290 288 287 285 286 287 287 288 288 287 284 283 279 280 282 292 295 291 296 295 296 297 296
306 306 306 306 307 309 312 309 313 311 305 304 307 307 308 308 305 301 298 299 296 296 290 286 285 285 286 285 286 290 287 290 288 287 288 294 294 296 297 296 296 297 297 297
306 306 307 307 309 309 311 311 308 308 302 302 304 303 308 309 308 309 299 298 300 295 295 289 287 286 287 285 286 289 291 292 290 289 293 292 294 296 298 299 297 298 297 297
306 306 307 308 308 309 310 308 306 306 300 290 299 306 304 307 309 309 306 301 297 296 295 288 287 287 289 286 289 290 292 292 290 290 293 293 295 297 297 297 297 296 297 297
307 307 307 307 308 308 309 307 305 306 303 292 294 303 303 305 307 304 303 301 299 295 291 287 288 288 289 288 289 288 293 292 289 289 294 294 294 295 296 296 295 296 294 290
307 308 308 307 307 306 306 303 305 303 302 296 289 298 299 302 303 301 300 301 298 296 293 288 291 295 291 287 287 294 295 296 295 295 297 296 295 295 296 296 295 292 291 289
305 305 306 306 304 304 297 297 302 300 300 293 288 289 295 297 299 298 297 297 295 297 293 290 292 293 293 287 287 293 295 296 296 295 296 295 295 294 293 291 290 289 288 288
305 304 304 304 304 304 303 302 301 300 295 293 286 286 290 295 291 291 295 292 294 293 292 290 289 291 289 287 292 293 295 295 294 293 295 293 290 289 288 288 289 289 289 289
304 304 303 304 302 301 303 302 301 299 297 286 284 286 286 295 290 289 291 291 287 290 287 289 291 287 286 288 289 290 292 292 290 288 289 288 288 288 290 290 290 289 289 288
303 303 298 291 298 301 301 296 293 291 289 288 284 289 287 293 288 287 287 287 285 284 287 291 287 287 289 287 288 288 291 293 290 287 286 288 288 289 289 289 290 289 286 286
299 295 291 298 300 297 290 286 287 287 286 289 288 290 288 292 289 286 286 285 284 283 284 287 285 285 286 288 289 291 292 292 291 291 291 291 291 289 288 286 286 285 285 284
299 298 297 295 291 288 287 285 286 286 286 287 288 288 291 288 288 287 286 282 285 281 287 285 282 285 287 290 290 292 292 292 291 292 291 290 288 287 286 284 284 284 284 281
298 293 289 291 287 286 281 281 285 285 286 287 286 286 287 288 290 286 286 284 283 287 284 283 284 285 289 289 289 289 289 288 287 286 286 286 285 285 284 283 284 281 283 284
288 288 286 284 285 285 285 285 286 285 286 286 286 285 287 286 287 285 285 284 285 282 280 281 284 286 289 289 288 286 284 282 284 285 285 283 283 283 281 279 279 278 282 283
286 286 282 282 283 284 284 285 285 285 286 286 286 286 287 285 284 285 284 282 279 280 278 283 286 288 288 286 285 284 283 281 283 285 282 280 279 280 282 283 283 282 279 279
286 284 282 284 284 284 285 285 285 286 286 286 286 284 284 282 282 280 280 280 276 279 284 285 287 287 285 285 284 284 284 284 284 284 284 283 280 280 282 282 282 280 281 279
284 283 285 285 285 284 285 285 285 286 286 284 284 280 279 282 278 278 280 278 280 284 285 285 286 284 284 285 286 284 284 284 284 284 283 282 282 280 279 278 279 279 280 279

GFSNW_sfc_thetae_048.txt.gz
Theta_e
308 311 311 309 308 307 309 312 302 322 325 307 308 302 302 301 305 307 304 304 302 300 301 300 299 299 301 305 305 302 303 301 296 297 301 302 301 299 299 292 290 294 293 291
308 309 310 308 308 308 312 308 310 317 314 302 302 304 302 304 304 305 304 303 304 305 302 298 301 302 304 304 304 303 303 299 293 294 298 301 298 300 299 296 297 292 290 292
307 309 309 307 307 309 316 309 305 311 311 309 305 302 301 300 307 305 306 305 307 305 302 304 301 302 302 303 303 299 302 300 297 293 294 299 295 297 298 297 291 291 292 293
307 309 308 307 307 308 314 312 305 309 303 303 304 304 302 299 301 306 307 304 305 304 300 301 301 303 301 302 300 304 304 297 297 295 295 295 296 296 297 295 296 292 294 293
306 308 307 307 307 308 310 308 306 307 308 306 302 300 301 300 303 304 303 304 306 306 303 303 301 303 302 301 303 303 301 297 296 293 294 294 292 295 296 297 297 296 296 295
306 308 307 306 306 309 313 318 312 311 300 303 301 300 301 301 307 305 305 308 306 304 305 307 309 307 306 305 304 302 300 298 294 290 291 291 290 295 296 296 298 297 294 298
306 307 306 306 306 310 319 320 313 311 299 300 300 301 303 304 306 305 305 307 307 305 310 309 308 306 304 303 301 302 297 296 293 291 287 285 294 297 297 297 299 300 298 299
306 306 305 305 306 308 319 323 315 308 294 302 301 302 305 306 306 305 306 305 307 310 306 303 298 298 298 298 298 298 299 296 289 291 287 291 293 293 293 293 294 299 299 299
306 305 305 305 306 308 314 323 318 313 302 299 304 304 306 305 305 305 302 305 308 304 303 301 295 293 296 294 296 298 296 297 297 288 289 287 292 296 300 299 291 300 301 301
305 305 305 305 305 308 317 321 318 316 308 306 308 305 305 309 307 305 302 302 303 304 301 292 295 295 295 292 291 289 293 292 292 290 290 292 296 298 300 289 292 301 302 303
304 304 304 305 306 308 316 317 320 319 310 310 311 310 307 307 310 305 305 304 303 302 298 293 296 296 295 294 294 293 293 292 289 288 288 286 298 298 294 300 302 302 303 304
303 304 304 304 306 308 312 315 318 320 314 310 313 312 313 312 311 310 307 308 306 307 302 299 297 292 290 295 294 296 293 297 296 295 296 299 301 303 304 302 301 303 303 304
304 304 304 305 307 309 313 318 318 318 312 310 312 309 312 315 314 316 308 308 308 305 307 303 301 290 299 290 295 296 298 298 297 295 298 299 301 303 303 304 303 304 304 305
305 305 304 305 307 309 313 318 316 317 308 296 306 312 309 312 314 314 312 310 307 306 308 302 295 296 298 297 297 297 299 298 297 296 300 300 301 302 303 303 302 302 302 303
305 306 306 307 308 308 314 313 311 314 312 298 304 309 309 310 311 310 310 309 308 308 301 293 299 298 298 298 298 297 299 298 296 297 298 299 299 301 302 302 301 302 300 298
305 306 307 307 307 308 319 309 310 307 313 305 297 306 305 308 310 308 307 309 308 307 302 294 299 298 301 291 295 298 299 300 300 299 301 301 301 301 302 301 300 298 296 293
306 306 306 306 306 313 308 305 308 304 308 302 294 300 303 305 307 304 306 306 302 306 298 295 297 298 301 290 295 296 299 300 300 301 301 299 299 296 298 297 294 293 293 292
305 305 306 305 305 306 309 305 302 304 305 305 289 295 301 303 299 296 300 298 302 298 295 295 294 296 297 293 295 296 298 299 298 298 299 297 295 293 291 293 292 291 289 289
304 304 304 312 309 310 308 301 302 307 306 292 288 292 291 300 294 294 299 298 290 295 292 293 297 290 289 290 291 295 295 296 294 295 294 292 290 291 292 292 292 290 290 291
304 310 309 302 304 302 304 305 305 299 296 293 287 294 290 297 295 292 295 293 290 287 291 294 292 292 289 289 290 293 296 297 295 289 288 289 290 291 291 291 292 292 291 289
308 303 297 305 302 306 299 291 291 294 289 293 292 295 292 295 292 288 291 287 289 286 290 290 289 289 287 290 292 294 294 293 293 293 293 292 291 291 291 289 289 288 287 287
306 305 304 304 300 296 290 287 290 290 288 291 291 291 293 292 296 292 290 285 289 286 291 289 285 287 289 291 292 294 294 294 293 293 292 292 291 289 288 287 287 287 287 286
307 301 291 297 289 288 290 285 287 287 290 289 290 288 292 292 295 288 289 287 285 292 287 286 286 288 290 291 291 292 292 292 292 290 289 288 288 288 287 287 286 287 288 288
291 289 287 288 288 286 288 289 290 287 288 290 291 288 290 290 290 289 288 286 288 283 282 283 284 288 289 289 290 288 286 287 288 287 287 286 286 285 285 285 285 285 284 284
288 290 285 285 285 285 286 286 288 287 289 291 292 290 293 288 286 287 286 284 283 284 284 286 287 288 290 289 288 287 286 286 287 288 285 284 285 286 286 285 284 283 282 281
288 287 284 285 285 285 285 285 285 288 288 290 292 287 287 284 287 285 284 284 283 284 287 287 288 288 289 288 287 288 288 288 288 288 287 285 283 282 282 283 281 280 280 279
286 284 286 286 285 285 285 286 285 287 287 285 288 285 283 286 284 282 285 284 286 286 286 286 289 289 288 288 287 286 287 288 287 285 284 283 282 281 280 278 279 279 279 279

GFSNW_sfc_thetae_051.txt.gz
Theta_e
308 308 309 311 310 308 308 312 303 322 325 303 306 304 306 305 305 310 307 305 303 301 302 300 300 299 303 309 308 302 306 302 296 299 304 305 304 301 301 295 292 295 294 293
308 308 309 310 308 309 311 307 310 323 320 299 304 307 306 306 304 306 306 303 304 305 302 299 302 302 308 308 307 304 306 299 293 296 300 303 300 301 301 301 299 294 291 293
307 308 308 309 308 309 316 309 304 309 314 309 307 304 304 302 307 306 308 305 306 304 302 304 302 303 306 307 308 301 304 301 297 293 296 301 299 300 301 299 294 294 294 296
307 308 307 309 308 309 314 311 305 309 301 304 306 308 305 302 301 307 309 306 305 304 300 302 302 305 305 306 301 305 306 299 300 300 300 299 299 299 299 298 298 295 296 296
306 307 307 308 308 308 311 308 307 309 306 307 307 304 304 302 302 305 305 304 305 306 303 304 302 305 305 304 307 306 306 299 300 297 300 299 297 299 299 299 299 298 298 297
306 306 306 307 307 309 308 317 318 310 305 306 305 306 305 303 305 309 310 308 305 306 307 312 313 312 310 309 307 305 304 301 297 291 295 295 291 297 298 299 300 299 296 301
305 305 304 306 307 309 314 317 316 309 303 307 304 305 306 304 305 306 309 312 308 311 315 314 312 310 308 307 306 308 303 301 299 293 289 284 296 300 299 298 300 302 301 302
305 304 304 306 306 307 317 325 320 312 300 307 304 304 305 306 309 309 309 309 313 316 312 305 301 301 300 300 302 302 304 301 293 290 290 294 296 297 296 295 295 300 300 301
304 304 305 306 306 307 313 319 327 316 310 306 307 304 306 305 307 307 306 312 314 311 310 305 296 293 296 296 299 301 300 301 298 292 289 286 296 299 302 301 292 301 301 301
304 304 305 305 306 306 312 318 326 319 309 310 310 305 306 309 309 308 307 307 306 310 307 292 297 297 300 295 295 291 295 296 293 293 290 295 300 301 302 291 295 303 303 303
304 304 305 305 306 306 311 316 326 321 314 312 314 312 308 310 311 307 309 306 307 307 300 296 301 300 300 298 299 296 295 295 290 295 287 286 301 300 295 302 304 304 305 305
304 304 305 305 305 306 310 314 324 326 318 314 319 317 318 317 317 313 311 309 309 310 306 305 306 295 295 300 294 301 296 300 299 298 297 303 304 303 307 306 304 305 305 306
304 304 305 305 305 307 311 321 324 324 316 312 314 312 316 318 319 321 311 314 314 312 316 310 308 294 305 293 299 300 301 302 299 298 300 301 303 304 305 306 305 306 306 306
303 304 304 304 306 308 312 321 323 320 313 304 307 317 312 316 318 318 319 317 316 315 314 306 298 297 305 303 302 301 303 302 299 299 301 302 303 305 306 306 306 305 305 306
303 303 304 305 307 309 317 319 317 321 316 302 306 312 313 315 316 315 315 315 313 311 306 297 303 305 304 304 303 301 303 300 299 298 302 302 303 304 305 305 304 304 303 302
303 304 304 306 308 311 316 312 317 319 322 309 299 309 309 313 314 313 313 314 314 313 304 303 305 303 307 295 298 302 302 303 304 302 304 304 304 304 305 303 302 301 299 298
304 304 305 307 309 319 313 307 311 312 319 304 295 300 308 310 312 310 311 312 310 311 304 300 304 304 306 294 297 301 301 303 303 304 304 301 302 299 300 298 297 297 296 294
305 305 306 306 305 305 309 308 305 307 310 306 292 296 301 309 305 302 309 305 309 302 299 301 299 301 300 297 300 300 301 302 301 301 302 300 298 298 297 296 295 292 291 292
305 305 306 315 314 313 309 302 304 313 310 292 290 293 291 304 299 301 302 303 292 302 295 298 300 294 292 294 295 297 298 298 298 299 298 297 295 293 294 294 292 290 291 292
305 313 311 307 309 303 305 306 307 304 303 298 292 299 294 301 298 294 297 295 292 289 294 300 295 294 292 294 294 297 299 300 299 295 291 292 291 292 292 292 293 293 292 291
315 308 301 308 303 308 303 293 297 300 292 297 296 300 295 300 294 290 294 289 291 287 293 292 291 290 290 294 295 297 298 298 295 295 294 294 293 292 292 290 289 289 289 288
308 308 308 308 304 298 293 288 292 293 291 293 292 294 296 295 300 293 291 287 290 286 295 292 287 288 293 294 294 295 295 295 294 294 293 293 292 290 289 289 288 288 289 287
312 304 295 300 291 289 288 286 289 287 291 291 292 289 294 294 297 290 291 287 287 294 288 287 288 291 293 293 293 293 294 294 294 291 291 290 289 289 289 287 288 290 288 288
293 290 288 289 287 288 289 291 290 289 290 292 293 290 292 293 290 292 286 288 290 285 284 285 288 290 291 293 293 293 290 289 289 289 289 288 287 287 286 286 285 284 283 283
290 290 286 285 286 287 287 288 289 289 293 294 292 292 294 290 287 290 286 284 284 286 287 288 288 289 290 290 291 289 288 288 288 288 286 286 287 287 286 284 283 283 282 281
288 287 285 286 286 285 286 286 286 290 293 297 296 290 289 286 289 288 287 286 285 285 288 288 289 290 291 291 290 290 290 290 289 289 288 285 283 284 283 283 281 281 281 279
286 285 286 287 285 285 285 286 287 290 291 287 291 287 285 289 285 284 288 285 287 287 287 288 290 290 290 290 290 288 289 290 289 287 286 285 284 282 281 280 280 280 280 280

GFSNW_sfc_thetae_054.txt.gz
Theta_e
307 308 309 309 311 309 308 308 297 318 323 303 302 300 304 305 307 307 306 305 302 300 301 299 298 298 301 308 307 301 304 302 296 298 304 305 303 300 300 295 291 296 294 292
307 307 309 309 310 309 307 303 307 321 319 296 297 302 304 306 305 305 305 304 304 305 301 298 301 302 308 308 306 303 306 300 293 294 300 303 299 300 300 300 301 294 292 293
306 307 308 308 309 309 309 305 300 308 312 307 300 300 301 302 308 305 306 305 306 303 301 304 301 301 306 308 307 303 308 301 296 292 295 300 298 299 300 299 295 294 294 295
306 307 307 308 309 309 308 307 303 307 298 303 303 305 303 301 301 306 307 304 304 302 299 300 300 303 305 306 302 305 306 296 297 298 299 300 299 299 299 297 298 294 297 296
305 306 307 308 308 309 306 303 305 310 305 306 302 301 304 302 304 303 302 303 304 304 301 301 299 303 306 303 306 305 306 299 300 298 300 300 297 298 299 298 298 298 298 297
305 306 307 307 308 308 305 310 315 309 303 304 300 302 305 304 307 306 306 307 306 304 306 310 312 312 311 308 306 304 304 302 298 293 296 294 289 296 297 298 299 299 294 300
305 306 306 306 307 307 310 312 316 307 301 302 301 304 307 306 306 305 308 310 307 311 316 315 313 310 309 309 308 310 304 303 300 294 289 284 295 301 300 297 298 300 299 301
305 305 305 305 307 307 309 314 317 311 297 304 303 305 307 309 309 305 308 311 315 317 313 306 301 300 298 301 304 304 307 303 295 288 290 293 296 298 296 295 295 301 300 301
304 305 305 305 305 307 308 309 314 317 307 304 306 305 308 305 306 308 308 314 318 317 312 304 296 294 297 295 298 301 301 305 297 293 287 284 296 299 302 300 292 300 301 302
304 304 303 304 304 304 306 309 314 313 305 311 309 305 305 311 309 308 308 307 308 312 305 289 293 299 300 295 294 290 295 296 291 292 289 294 302 302 302 291 295 303 303 303
304 304 303 303 304 304 306 308 312 309 312 312 315 313 309 310 311 306 310 306 308 310 297 292 302 299 301 298 300 296 294 294 289 295 287 286 303 300 295 303 306 305 305 306
303 303 303 303 304 305 306 305 313 317 313 315 320 317 318 316 317 315 312 310 309 311 306 304 307 293 294 301 296 302 296 301 299 297 296 305 304 304 307 306 304 305 306 306
303 303 303 304 305 306 306 308 314 319 316 313 314 312 317 318 319 323 311 317 315 314 320 312 309 293 306 292 301 301 302 304 302 300 301 302 303 305 307 306 306 306 307 306
303 303 304 304 305 306 306 307 314 318 316 302 308 318 313 317 319 320 322 321 321 320 318 309 296 296 309 305 304 303 303 303 300 299 302 302 304 305 305 306 307 306 306 306
303 304 304 304 305 306 307 309 315 320 313 301 305 312 314 316 317 317 317 319 316 314 304 292 305 308 307 307 306 303 304 301 300 299 302 303 303 304 306 305 304 303 301 298
304 304 304 304 305 306 309 307 318 321 319 310 298 310 310 314 315 315 315 316 318 315 306 305 307 307 309 295 300 303 304 305 305 302 305 304 303 303 304 301 299 298 297 295
303 303 304 304 305 310 308 304 308 307 319 305 293 298 308 312 312 312 311 314 311 311 306 303 305 304 305 294 299 301 303 304 304 305 305 301 302 296 298 297 296 295 295 295
303 303 304 305 305 305 307 308 306 307 310 307 290 292 299 308 304 302 308 306 307 303 299 301 300 301 303 298 300 302 302 302 301 301 303 300 298 297 296 296 295 292 291 291
304 305 306 309 309 307 306 303 305 315 309 292 289 289 290 305 300 300 301 304 291 301 293 297 301 294 292 298 298 299 300 299 298 299 298 298 295 294 293 293 292 291 291 292
305 310 308 296 304 303 303 306 307 302 302 300 293 298 293 300 298 294 296 296 292 289 294 300 295 292 295 296 297 298 300 300 299 295 292 293 292 292 292 292 292 291 290 289
313 305 296 304 303 307 301 294 292 296 290 297 298 298 295 300 293 289 293 289 291 288 292 293 291 290 291 296 296 299 299 297 297 297 296 295 294 292 290 288 289 289 288 286
310 309 310 309 305 296 291 288 291 292 291 293 294 295 296 295 301 292 290 288 290 287 295 289 288 288 293 294 294 295 295 295 294 294 293 293 292 290 289 288 288 288 287 283
311 302 292 298 290 288 287 284 288 287 290 291 292 289 293 295 296 289 289 287 288 295 287 287 288 291 293 294 294 294 295 294 293 291 290 290 289 289 288 285 286 286 284 283
293 290 287 288 287 288 288 288 289 288 289 292 293 291 292 292 288 289 286 288 290 285 284 286 289 291 292 293 294 293 290 288 289 288 288 286 285 284 283 282 282 281 281 281
289 289 285 285 285 286 286 287 288 288 293 293 292 292 293 289 287 289 286 284 284 287 287 288 290 292 292 292 291 289 287 286 287 288 285 285 285 284 282 282 282 281 278 278
288 286 285 286 286 285 286 286 286 289 290 296 296 289 286 286 289 286 284 286 285 286 287 288 290 290 291 290 289 289 289 289 288 287 286 284 282 282 282 281 280 279 278 275
285 284 285 286 285 284 285 286 286 290 291 286 291 286 285 290 286 284 286 284 286 286 287 289 290 290 290 290 290 288 289 289 288 287 285 284 283 282 281 280 279 280 280 276

GFSNW_sfc_thetae_057.txt.gz
Theta_e
304 306 308 309 309 310 308 307 297 310 316 298 297 294 299 302 304 307 305 303 302 298 297 297 295 296 298 303 305 298 301 296 290 296 302 302 298 296 296 285 286 288 284 286
304 304 307 308 309 309 306 302 302 312 312 289 292 297 299 302 303 303 303 303 304 302 298 296 299 298 306 304 302 299 301 294 285 290 294 299 295 297 296 296 293 288 280 286
302 303 306 308 308 309 309 302 295 304 307 298 295 295 295 297 304 304 305 304 304 301 297 300 299 300 306 306 304 301 303 297 291 285 290 295 293 296 296 294 284 287 287 291
302 303 301 307 308 309 308 302 297 304 296 298 297 297 296 297 298 305 306 302 301 299 294 296 297 301 302 305 302 302 300 292 294 294 296 297 296 296 296 295 293 287 291 293
302 302 299 307 308 308 303 299 300 304 302 303 299 296 295 296 300 302 301 299 302 301 297 297 295 301 301 299 301 299 301 292 293 291 297 296 292 295 295 295 295 293 293 292
301 301 298 306 307 307 299 305 305 304 299 300 298 297 297 298 302 304 306 302 302 300 301 304 304 306 305 304 301 297 298 294 288 286 291 290 283 291 293 294 295 294 289 294
301 300 298 306 307 307 305 305 306 302 294 299 298 299 300 301 302 303 305 304 302 306 311 309 307 304 303 306 303 304 298 295 289 283 283 276 291 298 296 294 294 294 294 296
301 299 302 305 307 307 302 306 307 302 288 300 300 299 299 301 304 304 305 308 310 311 307 299 294 292 291 296 302 300 302 293 286 281 281 289 292 295 293 291 291 296 294 297
301 303 304 305 306 307 304 301 306 306 297 299 303 299 301 299 301 302 305 310 312 310 303 295 287 285 292 292 294 300 300 297 286 282 278 275 290 295 299 297 284 297 297 296
303 303 304 305 306 306 304 302 305 304 302 304 304 299 298 305 303 300 303 304 305 308 289 286 285 285 296 288 288 286 284 284 281 278 278 285 298 298 300 284 286 298 299 300
303 304 304 305 305 306 304 300 306 306 303 305 309 306 304 306 306 297 302 301 303 300 288 288 286 284 291 290 297 290 287 284 281 284 283 280 301 297 289 296 298 299 300 301
303 304 304 304 305 305 305 299 308 311 303 306 314 312 313 312 311 308 304 301 303 303 294 291 291 288 288 289 284 298 288 294 288 289 288 298 301 299 300 300 299 300 299 301
303 303 303 303 304 305 304 301 308 308 302 307 311 307 311 315 315 316 303 305 307 307 307 299 295 288 292 286 288 293 297 301 293 293 297 297 300 302 303 302 300 301 302 301
303 303 302 303 304 304 304 300 306 307 305 294 305 315 310 313 316 316 318 314 314 311 306 294 290 288 300 291 296 294 297 298 296 294 297 300 300 300 302 302 303 297 295 296
303 303 302 303 304 305 305 304 305 308 305 296 300 309 311 313 314 314 316 313 311 304 293 289 291 297 296 296 295 292 298 296 289 287 298 298 297 300 301 297 296 294 292 291
303 303 303 304 304 305 304 299 307 308 310 303 291 305 305 310 311 310 312 312 311 305 297 291 297 301 295 287 285 297 300 301 301 298 301 298 296 296 297 294 293 293 292 292
303 303 303 304 304 305 302 301 306 306 310 299 290 293 303 307 308 304 305 306 303 303 297 292 295 297 296 288 286 297 300 300 301 302 299 294 294 291 293 293 293 293 292 291
303 303 303 304 304 305 305 307 305 305 307 300 288 289 296 305 297 294 301 299 298 297 296 295 288 294 288 287 296 298 299 298 296 297 298 295 295 294 293 292 291 289 288 289
303 303 304 304 303 302 306 305 303 308 302 288 286 289 288 302 296 297 295 297 288 296 288 292 293 289 286 294 295 296 297 295 294 295 295 294 292 292 290 290 289 288 288 286
303 304 303 296 302 304 304 302 296 292 292 292 289 292 290 298 291 289 289 289 287 286 289 296 288 287 294 294 295 297 298 296 295 291 289 290 290 289 289 288 288 287 286 285
305 300 293 301 303 304 295 287 288 289 286 288 294 293 291 297 289 286 288 286 286 285 287 287 286 285 291 296 295 296 297 297 296 295 294 293 292 287 286 286 286 284 283 282
305 303 304 302 298 290 289 285 286 288 285 288 290 290 294 290 296 289 286 286 286 283 290 287 281 288 293 294 292 292 294 294 294 294 293 291 288 288 287 285 284 281 280 279
304 297 290 291 287 285 285 282 285 285 287 289 288 287 288 289 291 286 287 285 285 288 285 280 284 290 293 292 292 292 293 293 291 289 289 288 286 285 284 283 282 280 279 279
290 287 286 286 285 284 284 285 286 286 287 288 288 288 287 287 286 286 285 285 287 282 279 280 287 290 291 292 292 291 287 286 286 286 284 282 281 280 280 279 278 278 278 278
286 286 283 283 284 285 285 286 286 287 289 289 288 288 287 285 285 285 285 283 282 282 281 285 289 290 291 290 287 286 285 284 284 285 282 281 280 280 279 280 279 278 274 273
286 285 284 285 285 285 285 285 285 287 287 288 288 286 285 285 285 283 283 280 279 283 285 288 290 290 289 287 286 287 287 286 285 284 283 282 280 278 278 279 277 273 272 271
284 283 284 285 285 284 284 285 285 288 287 285 286 283 283 286 283 281 283 281 283 285 286 287 289 288 287 287 287 286 286 285 283 282 281 280 281 279 278 276 277 277 276 270

GFSNW_sfc_thetae_060.txt.gz
Theta_e
302 302 303 305 307 309 308 301 295 310 314 296 293 293 297 299 301 305 303 303 300 296 295 293 293 294 296 301 302 297 299 294 288 294 299 301 296 294 294 285 285 286 282 284
302 302 303 304 307 308 303 298 301 309 310 290 289 295 298 300 298 300 301 300 302 300 296 291 295 296 303 301 301 297 299 292 285 290 294 297 294 295 295 294 289 285 279 284
302 303 303 304 306 308 304 300 293 301 303 299 292 291 294 295 301 300 302 301 303 299 296 298 294 298 303 304 302 301 301 294 289 285 289 292 290 294 294 291 282 285 286 289
302 302 303 304 305 308 303 301 296 299 293 294 295 294 294 294 294 299 303 300 300 299 294 294 294 300 300 303 301 300 298 291 293 293 294 295 293 293 293 292 291 286 289 290
301 302 303 304 305 307 299 297 298 301 297 298 294 293 292 293 295 297 295 297 301 300 295 295 293 299 298 296 299 297 298 290 290 289 293 292 290 292 293 293 292 292 291 291
301 302 303 303 302 306 298 299 303 300 296 296 294 292 293 294 297 299 299 302 301 298 300 301 299 304 303 302 298 295 295 292 286 284 288 289 283 289 292 293 293 293 288 291
301 301 302 302 303 304 302 300 303 299 292 297 295 296 297 296 297 295 302 300 300 303 308 305 303 301 303 302 300 301 294 292 286 282 282 276 291 296 295 292 292 292 294 294
302 301 302 302 302 300 301 303 301 301 289 298 299 298 298 299 299 299 299 304 306 308 304 296 292 290 291 295 298 298 300 290 284 280 281 287 291 293 290 289 288 294 294 294
301 301 301 301 301 299 302 302 304 302 297 296 302 299 300 296 296 297 302 308 309 308 299 291 286 284 289 290 292 297 297 293 287 283 277 275 288 294 296 294 283 295 295 295
300 300 300 299 300 299 303 301 304 299 297 304 303 299 298 301 298 297 302 304 303 305 289 286 284 285 294 287 286 284 283 284 282 276 276 282 293 297 296 283 285 296 298 297
300 300 300 300 300 305 303 300 305 299 299 301 308 305 300 301 300 295 300 300 299 296 289 288 288 283 290 288 293 288 286 283 281 281 274 279 297 295 289 292 296 299 299 298
300 301 300 301 304 305 305 297 303 305 299 299 306 309 311 308 306 305 302 301 301 301 293 291 291 287 285 287 284 295 287 289 286 288 286 295 298 297 297 299 298 297 298 300
301 302 303 304 304 305 303 299 302 301 299 300 305 305 310 313 313 312 302 302 306 303 304 299 295 288 290 284 284 291 295 299 292 293 294 296 298 300 300 299 298 298 299 300
302 303 303 303 304 305 304 298 303 304 302 292 301 314 308 313 315 315 313 311 309 306 301 292 290 287 296 287 293 291 295 297 294 292 296 298 298 299 299 294 293 292 292 295
302 303 303 304 304 305 304 303 303 305 301 293 300 307 310 312 313 313 315 312 309 302 292 287 291 295 294 292 292 291 295 294 289 287 297 295 295 296 296 292 291 292 290 289
302 302 303 303 303 304 301 293 302 304 305 295 290 303 306 308 311 309 307 307 306 304 297 294 297 301 292 285 283 295 298 299 299 297 297 295 294 293 293 291 291 291 290 290
302 302 303 302 303 303 297 295 304 304 306 296 289 292 304 306 305 302 303 303 300 302 299 295 295 297 293 285 284 296 298 298 296 295 294 291 291 289 292 292 291 291 290 289
302 302 302 302 304 304 299 306 305 308 303 301 287 291 295 303 295 295 298 294 296 296 295 294 290 294 289 285 294 296 296 297 296 294 295 292 292 291 290 290 290 288 286 285
302 303 303 303 301 299 299 306 305 304 302 288 286 289 287 299 294 295 294 292 288 292 288 290 292 287 284 291 294 294 296 294 292 293 292 291 289 289 288 288 288 285 284 284
302 301 298 292 301 306 306 304 298 293 292 291 287 291 289 295 288 288 288 288 286 287 286 294 284 286 291 293 295 296 295 294 293 289 287 288 287 287 288 287 286 284 283 283
299 295 292 301 305 302 296 289 287 288 284 288 292 291 291 296 288 286 287 286 286 284 288 287 285 285 290 293 295 296 296 295 295 293 291 290 289 286 285 284 283 283 282 281
302 302 302 301 296 289 288 285 286 285 284 288 289 289 290 290 293 287 286 285 285 282 289 286 284 287 292 293 293 295 296 295 294 293 290 288 288 287 284 282 281 280 279 277
302 295 293 291 286 285 281 281 283 284 286 288 288 286 287 289 290 286 286 284 283 284 282 282 283 291 292 292 292 292 292 291 290 288 288 288 286 285 282 279 279 279 278 277
290 288 284 285 285 283 283 285 285 286 286 287 288 286 286 286 286 285 284 285 285 276 273 279 286 290 290 291 290 287 286 285 286 285 284 283 282 280 280 279 278 277 276 275
285 285 281 282 284 285 285 285 286 286 288 287 286 286 287 285 285 284 282 283 281 279 279 284 289 290 290 288 286 285 284 283 283 283 281 280 279 279 278 279 278 277 274 272
285 284 284 285 285 285 285 285 285 287 286 287 287 286 285 284 284 283 281 280 279 282 285 288 290 287 287 286 285 286 285 283 282 281 280 279 279 278 278 277 276 273 272 270
284 282 284 284 284 283 284 285 285 287 286 285 281 283 283 284 282 281 283 280 282 284 285 288 287 286 285 286 285 284 284 283 282 281 281 279 279 278 277 275 276 277 275 271

GFSNW_sfc_thetae_063.txt.gz
Theta_e
303 303 303 304 304 306 305 299 289 307 310 297 297 290 295 298 299 301 300 301 299 296 293 292 292 292 295 298 299 294 296 291 286 291 297 298 295 293 292 283 284 284 282 283
303 302 303 303 303 304 301 294 296 308 307 291 292 294 295 298 297 297 298 298 300 299 293 289 293 294 299 301 298 296 297 290 284 287 292 296 294 293 294 292 287 283 279 284
303 303 302 302 303 303 302 295 289 299 302 300 295 292 292 293 300 298 299 299 300 298 295 296 293 295 300 301 300 301 299 292 289 284 288 292 290 292 292 291 283 284 284 287
302 303 302 302 302 303 300 295 291 296 290 293 296 294 293 292 294 298 299 295 297 296 292 292 293 298 298 300 299 299 296 290 290 291 292 292 291 292 291 290 289 285 288 288
302 302 302 302 302 303 295 290 294 298 294 297 295 294 291 292 294 295 294 293 299 297 295 295 293 298 296 295 297 295 296 288 288 287 290 291 290 292 291 291 290 290 290 289
301 302 301 302 302 301 292 298 299 297 295 294 293 292 292 293 296 298 298 297 297 295 299 302 300 301 301 299 297 294 293 290 285 283 287 287 283 288 291 291 292 291 287 291
301 301 301 301 302 300 301 298 299 297 289 293 292 294 295 294 295 294 298 298 296 300 306 303 301 301 301 300 298 299 292 289 284 281 282 276 289 294 293 291 290 291 292 292
301 301 301 301 301 302 300 300 299 298 286 294 296 294 294 295 297 296 297 299 300 305 304 295 291 289 290 293 297 298 297 288 283 280 281 285 291 292 290 289 288 292 292 293
300 300 301 301 302 303 299 301 303 299 294 294 298 295 296 292 293 294 297 300 309 306 297 290 286 285 290 290 291 296 294 291 286 279 277 277 289 293 294 293 283 294 294 294
300 300 301 302 302 303 300 301 304 300 295 299 301 296 295 299 297 294 296 302 302 303 287 284 283 285 293 286 286 284 284 283 282 277 276 284 292 295 294 283 285 294 295 294
300 300 301 301 302 302 299 298 304 299 296 297 304 303 299 299 300 293 297 300 298 293 288 287 285 282 290 288 291 287 287 283 279 278 274 280 295 294 288 290 295 297 296 296
300 301 301 301 301 300 300 295 304 304 297 297 304 303 304 305 305 301 301 298 299 299 293 289 290 286 285 286 284 292 286 289 286 287 286 294 295 294 295 297 297 297 297 296
300 300 300 300 300 301 299 298 301 299 294 294 298 300 307 311 310 307 300 301 305 302 303 296 293 289 290 287 286 291 293 295 289 290 293 294 296 297 298 298 297 298 298 294
300 300 300 300 300 301 300 299 301 298 296 291 299 311 307 312 313 309 308 307 306 304 301 293 290 288 297 290 294 291 294 296 292 290 293 296 297 296 294 293 293 293 294 293
300 300 300 300 300 302 302 302 302 302 296 291 295 304 310 312 312 311 311 309 304 298 293 288 290 294 294 291 293 291 295 294 290 289 296 294 295 295 294 292 291 291 290 289
300 301 301 303 303 303 299 294 300 303 303 294 288 301 305 309 309 308 307 307 304 302 296 293 295 299 291 285 285 294 297 298 297 296 298 294 294 292 292 291 290 290 289 290
301 302 302 303 303 300 296 290 296 303 304 294 288 291 303 306 306 301 302 302 302 301 298 294 295 295 292 284 283 294 297 295 294 294 293 289 290 288 291 290 290 290 289 289
302 302 302 302 302 301 296 305 302 303 299 298 286 289 294 303 296 295 297 294 295 296 295 294 291 294 288 288 293 295 294 294 293 292 293 292 290 290 289 289 288 286 285 285
302 302 302 300 298 293 297 303 304 306 301 288 286 287 287 299 294 295 291 293 287 293 288 287 292 287 288 294 296 295 294 293 290 291 291 290 289 288 287 286 285 283 283 284
302 300 295 290 297 304 304 301 295 294 292 290 287 292 290 295 289 287 288 287 287 286 288 291 282 286 291 293 295 295 294 292 292 288 287 287 286 286 286 284 285 284 282 282
294 292 290 302 304 300 294 286 284 287 286 289 291 292 291 295 288 286 286 286 285 285 288 288 285 285 288 292 293 294 294 294 294 294 292 291 289 287 284 283 283 282 281 279
297 299 302 301 296 289 287 284 284 285 284 288 289 289 292 289 291 288 286 285 284 284 289 286 284 285 289 291 291 293 293 292 291 292 290 289 288 286 284 283 281 280 279 277
302 296 289 290 286 284 284 282 282 284 286 288 287 286 287 287 286 286 286 284 282 286 285 284 285 290 291 291 292 293 293 291 290 288 288 286 284 283 282 279 279 278 277 277
290 287 284 285 284 284 284 285 286 286 286 287 288 285 285 284 286 285 283 284 286 280 277 277 285 289 290 289 289 288 286 286 286 285 283 281 280 279 279 279 278 276 276 275
286 286 281 281 284 285 285 285 286 286 287 286 285 285 285 285 284 283 284 282 281 279 275 283 288 289 287 286 286 285 284 283 283 283 281 279 279 278 278 278 278 276 274 272
285 283 284 285 285 285 285 285 285 287 286 285 285 284 285 283 284 281 277 279 278 279 284 287 289 287 286 285 285 284 283 282 282 281 280 279 278 277 277 277 275 274 273 272
283 281 284 284 284 283 284 285 285 287 286 284 279 282 282 284 282 280 282 279 281 284 285 286 286 285 284 284 283 282 282 281 281 280 279 279 278 277 276 275 275 276 274 272

GFSNW_sfc_thetae_066.txt.gz
Theta_e
305 304 304 304 304 304 302 296 287 301 309 294 296 292 292 297 298 301 298 298 297 296 292 290 290 291 294 297 296 292 295 289 284 290 294 295 293 292 290 284 283 283 281 282
305 304 303 304 304 304 298 292 293 306 304 287 290 295 295 296 297 296 296 296 298 298 293 287 291 292 297 297 295 294 295 288 282 285 289 293 292 292 292 289 286 283 279 283
305 304 303 303 304 304 300 293 286 296 298 296 291 292 293 291 298 297 297 297 298 297 294 295 291 292 298 299 297 300 298 290 287 283 286 290 288 291 291 290 282 284 283 286
304 303 303 303 303 304 298 294 290 295 288 289 292 293 293 291 291 297 298 295 296 295 292 292 291 296 297 298 299 296 295 288 289 289 290 290 290 290 289 288 288 285 287 286
304 303 303 303 303 303 293 287 290 295 291 294 291 293 291 291 292 294 293 293 295 296 293 294 291 296 295 295 295 294 294 288 287 287 289 290 288 291 290 290 290 288 288 288
303 303 302 302 303 302 292 293 293 292 293 292 290 289 292 292 294 296 297 296 295 294 295 299 300 300 299 297 295 292 292 289 285 284 286 287 283 287 290 291 291 291 286 290
303 302 302 302 302 301 292 293 295 291 288 292 290 290 294 293 294 293 297 298 296 298 304 303 301 298 298 298 295 296 290 288 284 282 281 275 288 292 292 290 291 290 290 291
303 302 302 301 301 302 294 295 293 294 287 292 293 292 293 295 295 294 296 298 300 302 302 295 291 288 288 291 295 295 295 287 282 282 280 284 288 291 290 288 288 291 290 292
302 301 301 301 301 302 296 296 300 297 292 289 295 294 293 291 291 291 294 300 303 303 295 289 286 284 288 289 291 294 292 290 286 279 277 277 287 292 292 291 284 292 293 293
302 301 301 301 301 302 296 294 297 294 290 298 297 293 292 296 293 289 292 296 299 301 283 280 284 286 292 285 286 286 285 283 281 276 276 284 292 293 292 283 285 291 294 294
301 301 301 301 301 301 298 295 298 295 292 295 300 300 296 296 295 289 293 296 295 290 286 283 284 282 289 287 291 289 289 284 279 278 276 281 294 292 287 290 292 294 293 294
301 300 300 301 301 301 300 294 299 304 297 295 301 299 300 301 300 297 299 295 296 296 291 287 287 285 285 288 285 292 288 292 288 288 288 295 294 293 293 294 295 296 295 294
300 300 300 301 301 301 300 296 299 300 294 294 296 296 302 305 305 306 298 297 302 299 301 294 293 287 290 285 286 290 292 294 289 290 293 293 295 296 295 297 296 297 296 292
299 300 300 300 301 301 300 295 300 298 295 288 295 309 305 309 309 307 304 305 303 301 299 291 290 288 295 289 293 291 293 295 291 289 294 295 296 296 295 294 295 295 292 291
300 300 300 301 301 301 299 299 301 301 296 289 292 300 306 308 308 308 305 305 300 296 292 287 290 294 294 291 292 289 295 293 290 289 296 295 294 295 294 293 292 292 289 288
300 300 300 300 301 301 298 294 301 302 302 292 286 300 304 309 309 306 303 304 302 299 294 290 295 298 294 286 285 294 297 297 297 296 298 294 293 291 292 290 289 290 289 289
299 300 300 300 301 299 294 292 296 303 302 292 286 289 302 305 306 301 300 299 298 298 295 290 294 295 292 283 284 293 295 295 295 294 294 291 291 290 290 289 289 290 289 289
300 300 300 300 301 301 296 302 303 302 298 295 285 288 294 302 296 295 297 293 294 295 294 292 288 293 289 287 293 294 293 293 291 291 292 292 290 289 287 288 288 286 285 285
301 301 302 300 297 292 295 302 303 304 298 287 285 286 287 299 295 294 293 293 288 293 289 289 293 286 287 293 294 293 293 294 290 291 290 290 287 286 286 286 285 284 283 284
301 299 293 286 291 302 302 300 294 294 294 290 286 292 289 295 289 287 288 287 287 286 289 293 287 288 291 292 295 295 295 292 291 287 286 286 285 285 285 285 285 284 283 283
292 291 290 296 303 299 293 285 286 286 285 288 289 292 290 294 288 286 287 285 285 285 286 288 286 286 288 292 293 294 293 292 292 292 290 290 288 286 283 283 283 283 282 281
294 296 301 298 295 288 284 285 284 284 284 288 289 290 292 289 292 287 286 285 285 284 289 286 284 286 288 290 290 290 291 291 290 290 289 288 286 285 284 282 282 280 279 278
298 295 292 289 286 284 282 281 280 283 286 288 288 286 287 288 289 286 286 284 283 286 285 284 284 289 291 290 290 290 291 290 289 288 287 286 284 284 282 279 279 279 278 277
288 286 284 284 283 284 284 285 285 285 285 286 287 285 286 285 285 285 284 284 285 281 279 280 282 288 289 290 289 288 286 285 285 284 283 282 281 279 279 278 278 277 276 276
284 285 280 281 283 285 285 285 286 286 287 286 286 285 286 284 284 284 284 282 278 277 275 282 286 287 286 286 286 285 284 283 282 281 279 279 278 277 277 277 277 276 274 273
284 283 284 285 285 284 284 285 285 286 286 286 286 284 284 282 283 278 277 274 272 280 283 286 286 285 284 284 284 283 283 282 281 280 279 279 278 277 276 275 275 274 273 272
283 281 283 284 283 282 283 284 284 287 286 283 281 282 282 284 281 280 281 279 281 283 283 284 285 283 282 282 282 282 281 281 280 279 278 278 277 276 275 274 275 275 274 273

GFSNW_sfc_thetae_069.txt.gz
Theta_e
305 306 306 305 304 304 302 295 285 302 307 291 293 289 293 296 297 301 299 299 298 297 294 292 292 292 296 298 298 294 298 294 289 293 298 299 298 296 296 291 287 288 287 288
305 305 306 305 304 304 297 291 290 302 301 285 287 292 293 296 295 297 297 296 298 301 297 290 293 294 299 297 298 297 298 292 287 289 293 298 296 295 295 293 291 288 288 290
305 305 305 305 304 304 298 291 284 293 295 294 290 289 290 291 297 297 298 297 299 298 296 297 294 294 299 299 299 300 300 293 291 287 290 294 292 294 294 295 289 290 290 293
305 305 306 304 304 303 297 292 288 292 285 287 289 291 291 290 291 297 298 295 297 296 292 294 293 297 299 300 300 299 300 292 292 292 292 294 294 294 293 293 294 291 294 291
305 305 305 304 304 303 295 288 289 292 292 291 288 290 290 290 293 294 293 294 295 296 294 296 293 297 298 298 298 298 297 293 292 291 292 293 292 293 293 293 293 293 292 292
305 304 305 303 303 302 293 294 294 291 290 290 287 287 290 292 295 296 297 296 296 294 296 300 300 302 301 301 299 296 294 292 290 288 290 291 287 292 293 294 295 295 291 297
305 304 304 303 303 301 297 295 294 290 285 290 288 289 291 292 294 293 297 298 296 299 305 303 302 301 300 299 298 300 293 292 289 287 285 282 294 296 296 295 295 296 295 296
304 304 303 302 302 302 296 295 292 291 286 290 291 291 289 295 296 295 296 299 302 304 302 294 290 290 292 294 297 296 297 291 286 286 286 289 292 294 294 293 293 297 296 296
304 303 303 302 302 302 297 295 297 294 289 289 294 293 291 290 292 293 295 301 304 303 295 290 286 283 290 291 292 295 293 293 292 284 284 282 292 295 297 297 289 297 297 297
303 303 302 302 302 302 297 294 298 295 291 294 295 292 292 294 294 291 294 296 299 303 288 286 286 288 295 290 288 288 288 287 287 283 286 288 294 295 297 290 293 297 298 299
303 302 302 302 302 302 298 294 298 294 290 293 296 299 296 295 295 290 293 295 296 293 288 287 287 287 292 291 293 291 290 288 287 285 285 285 297 294 292 298 297 297 298 299
302 302 302 302 302 302 300 292 298 299 293 294 300 300 300 301 301 297 298 295 296 297 293 290 290 287 287 291 288 294 290 294 291 292 293 300 298 300 299 299 300 299 299 298
302 302 301 302 301 302 299 294 296 294 291 290 293 294 303 304 303 306 296 298 302 299 302 295 295 289 293 288 290 293 294 296 294 295 297 297 298 299 300 299 300 300 300 297
301 301 301 301 301 302 299 294 297 296 295 286 292 305 299 308 306 305 306 304 305 303 302 294 290 291 297 293 296 295 296 297 294 294 296 298 299 300 300 299 300 297 295 295
301 301 301 301 301 301 298 299 299 299 295 288 290 298 303 308 307 306 307 306 303 300 294 289 294 296 296 294 295 293 297 296 293 293 299 299 300 302 300 298 298 295 292 291
300 301 300 300 300 300 295 290 298 299 299 291 285 299 299 307 308 306 305 305 303 302 297 293 298 299 297 290 292 297 299 300 300 300 300 297 294 294 296 297 295 293 292 291
300 300 300 300 300 297 293 291 297 300 301 291 285 287 300 306 305 303 301 301 300 302 298 294 297 297 296 288 291 296 297 297 298 296 296 294 294 294 293 293 292 291 290 290
300 300 300 300 300 300 297 301 302 302 297 295 284 287 293 303 296 295 299 296 297 297 296 294 295 295 291 290 294 295 294 294 294 293 293 295 291 290 289 290 290 288 287 287
300 300 300 298 296 292 295 302 303 303 297 287 285 284 287 299 295 295 293 295 289 294 290 292 296 290 290 295 296 294 294 295 293 291 291 291 290 289 288 288 288 286 286 286
299 296 292 287 295 302 302 298 292 293 294 291 286 291 289 295 291 289 290 288 287 287 290 295 290 289 294 296 298 299 297 294 292 288 286 287 287 287 288 289 288 287 286 284
296 292 289 296 302 296 291 286 285 287 285 288 290 292 290 294 288 287 287 285 286 286 289 290 288 288 291 293 294 295 294 293 293 292 292 292 290 288 285 285 285 285 284 282
294 296 300 298 294 288 285 284 284 285 285 288 289 290 292 289 293 288 286 285 285 285 290 287 286 288 290 291 290 291 292 292 291 291 289 288 287 286 285 283 282 281 281 280
298 292 288 287 285 283 281 279 282 283 286 288 288 286 288 288 289 285 285 284 284 288 286 286 285 289 290 290 290 289 290 289 288 286 286 285 284 284 282 280 280 280 279 279
286 285 284 285 283 284 285 282 284 286 286 287 287 285 287 286 286 285 284 284 285 283 282 282 286 287 288 288 288 287 285 284 284 283 282 281 280 278 279 279 279 278 277 277
284 285 281 281 284 285 285 285 286 286 287 287 286 286 287 285 284 284 285 283 281 281 280 283 285 285 285 285 284 283 282 281 280 280 279 278 278 277 277 278 278 277 275 275
284 282 282 284 284 283 284 285 285 286 286 286 287 285 284 283 283 282 280 279 278 281 283 285 285 283 282 282 282 281 281 280 280 279 279 278 277 276 275 276 275 275 274 274
282 280 282 281 282 281 282 283 282 286 286 283 285 283 282 285 282 279 281 278 280 283 283 283 283 282 281 281 281 280 280 279 279 278 278 277 277 276 276 274 275 275 275 274

GFSNW_sfc_thetae_075.txt.gz
Theta_e
306 306 306 306 306 306 303 296 287 305 307 289 290 285 292 296 297 300 299 300 300 297 298 297 294 295 300 304 305 301 304 301 296 298 304 306 304 301 301 295 293 296 295 295
305 305 306 306 306 305 300 290 291 305 305 284 285 291 292 294 295 296 298 299 301 304 298 295 298 298 303 304 304 302 304 298 292 295 300 303 300 303 303 302 301 295 293 295
305 305 305 306 306 305 301 290 285 295 295 296 291 288 289 290 296 296 298 300 301 299 298 301 297 298 301 305 304 304 306 300 296 292 296 300 297 299 301 300 297 296 296 297
305 305 305 305 305 305 300 292 290 294 284 287 292 292 291 289 290 296 298 296 299 298 294 295 296 300 300 301 301 304 304 297 298 299 300 300 299 298 299 297 299 295 297 298
304 305 305 305 305 305 296 288 291 294 293 293 291 291 290 290 292 293 293 295 297 299 295 297 293 297 299 298 302 302 305 298 299 296 299 299 296 298 299 299 299 299 299 298
303 303 304 304 305 304 294 297 300 296 292 292 289 291 291 291 294 296 297 297 297 297 299 304 304 304 302 302 300 302 302 301 297 293 298 298 294 297 298 300 301 300 297 302
303 303 303 304 304 304 301 299 299 294 288 291 291 291 292 292 293 293 297 299 297 301 307 307 304 302 301 300 299 302 301 300 300 294 293 287 297 303 303 300 301 303 303 304
303 302 302 303 304 304 300 301 300 295 291 292 291 292 292 293 295 294 297 299 303 305 305 298 293 291 292 294 298 299 301 300 296 293 292 295 297 299 300 299 299 304 304 305
302 302 302 302 304 304 301 301 306 300 294 292 295 293 294 291 291 293 297 303 308 307 300 296 288 286 288 287 293 302 299 302 299 295 290 287 297 302 306 306 297 306 306 306
303 302 302 303 304 304 301 300 309 302 293 296 297 292 293 297 295 293 296 298 301 305 296 291 290 289 293 288 290 292 295 296 294 295 293 296 303 304 307 295 297 307 307 307
303 302 302 302 304 304 301 298 308 302 296 297 300 300 296 297 297 292 296 297 300 300 293 292 293 293 293 292 293 294 294 293 293 296 292 290 305 302 298 305 311 310 310 309
303 302 302 303 303 304 302 296 307 306 299 298 305 304 306 305 302 297 298 299 299 301 297 299 298 297 301 295 290 297 295 299 297 298 299 308 307 307 310 311 310 311 310 310
302 302 303 303 304 303 302 300 304 303 297 297 299 299 304 307 307 309 297 303 305 303 308 301 300 295 299 295 296 295 299 302 300 300 303 306 309 310 310 311 311 311 311 311
302 302 302 303 303 302 302 300 304 301 297 291 293 303 302 305 305 305 305 306 308 309 306 305 301 299 301 299 298 298 300 302 301 300 303 305 308 310 312 312 311 310 311 310
302 302 303 303 302 302 302 304 304 304 297 291 292 300 302 305 305 302 304 303 305 303 304 301 298 301 300 302 302 299 302 300 300 299 305 306 307 310 314 312 311 311 310 309
301 302 303 301 300 301 298 290 300 303 302 294 287 299 298 301 303 302 302 304 305 304 301 302 302 304 301 299 296 301 302 304 306 304 309 309 310 307 308 311 312 312 311 310
302 302 301 300 300 301 295 293 299 301 302 296 289 291 299 300 300 300 301 303 303 303 304 302 302 303 303 302 296 299 303 305 306 309 308 306 308 308 305 306 306 305 308 308
301 299 299 300 300 301 299 304 301 305 297 298 287 288 292 301 296 294 301 299 303 301 302 305 302 304 304 297 300 302 304 306 307 308 309 308 306 304 304 304 303 302 302 302
300 300 299 298 297 294 298 301 301 304 299 288 286 286 284 291 296 300 301 303 295 303 299 299 302 300 295 301 302 303 305 304 306 307 305 303 303 302 301 301 301 299 298 298
299 298 293 289 297 300 300 295 292 293 296 296 288 292 286 290 286 294 296 298 292 288 295 302 297 297 303 305 305 307 308 307 305 302 301 300 301 300 300 300 300 299 298 297
299 295 292 300 301 296 292 286 286 288 286 293 293 292 290 293 286 287 293 290 291 287 294 295 294 294 300 302 303 304 306 306 304 303 303 303 303 300 299 297 297 296 294 290
297 299 299 298 293 291 287 286 287 286 287 292 291 291 293 291 289 285 289 289 288 288 297 294 290 290 293 297 299 301 302 301 299 301 299 299 297 295 290 288 286 284 283 283
303 296 291 291 289 283 283 280 285 286 291 293 293 289 293 292 288 285 287 287 287 291 288 285 285 288 290 291 293 294 296 296 294 292 291 290 287 287 286 284 284 284 282 281
293 289 284 286 283 287 289 290 290 291 291 292 292 289 287 287 285 286 285 286 286 285 285 282 284 285 285 286 286 285 285 284 283 283 283 282 281 281 282 282 282 282 281 281
287 289 283 284 286 286 286 288 289 288 291 293 293 290 289 286 286 286 286 284 282 283 282 283 283 284 283 282 282 281 280 280 280 281 280 280 280 280 281 281 282 281 279 279
288 285 284 284 286 284 283 283 285 286 287 291 293 287 285 285 287 284 282 283 279 280 283 283 282 281 280 280 280 280 280 280 280 281 281 281 280 280 280 280 280 279 279 279
286 282 284 283 284 281 280 280 280 284 286 285 287 285 283 288 283 280 282 278 280 281 281 282 283 281 281 282 282 282 282 282 282 282 282 281 281 281 280 277 278 278 277 278

GFSNW_sfc_thetae_081.txt.gz
Theta_e
304 305 305 305 306 305 303 295 285 301 303 288 288 283 285 290 289 293 291 290 289 288 291 289 289 294 297 300 299 295 298 296 290 292 300 302 300 296 296 289 289 291 288 287
304 304 305 305 305 305 299 289 290 300 300 282 283 287 287 289 288 289 289 288 291 292 290 288 292 296 303 299 298 296 297 293 287 290 295 300 297 297 298 297 294 289 284 288
304 304 305 305 305 305 300 286 283 291 294 291 287 285 285 285 291 289 291 290 291 289 287 293 290 293 301 301 302 301 300 294 291 286 291 296 293 296 297 295 287 289 289 293
304 304 305 305 305 305 301 287 285 290 283 287 287 288 287 285 285 290 291 288 288 288 286 290 290 296 294 300 301 302 299 291 293 295 296 297 297 296 296 294 295 292 294 295
303 304 304 305 305 305 297 284 286 291 288 289 288 287 286 286 287 288 287 286 288 290 288 290 290 293 292 294 299 299 299 290 294 292 296 297 295 296 296 296 296 295 294 294
303 304 304 304 305 304 296 294 295 292 289 288 286 286 285 287 290 290 291 290 288 287 289 295 298 301 300 298 298 294 295 292 292 287 294 294 286 293 295 297 298 296 291 295
304 303 304 303 304 304 300 296 294 288 284 286 286 288 289 288 290 288 292 292 289 292 298 304 300 299 298 299 299 299 294 293 292 286 288 282 293 299 299 297 298 298 297 298
303 303 303 303 303 303 299 299 294 290 283 289 289 289 289 290 291 290 291 293 295 295 298 292 289 289 291 292 297 297 299 293 285 284 286 292 295 297 296 296 294 300 298 299
302 302 303 303 303 303 300 297 299 294 287 285 292 290 290 287 287 288 290 296 296 295 290 288 283 282 286 287 291 298 298 297 289 285 283 281 293 300 302 301 288 300 301 300
301 302 302 302 302 303 300 296 299 295 288 291 292 290 289 293 290 287 289 291 292 294 285 279 283 283 292 284 285 286 287 286 283 285 283 289 299 302 303 288 288 302 303 302
301 301 302 302 302 302 300 296 300 296 291 292 295 297 292 294 293 286 289 288 290 289 284 284 285 281 288 288 290 289 288 286 284 285 282 282 302 300 294 297 302 304 303 303
301 302 302 302 302 302 301 294 300 301 295 294 301 300 301 300 298 294 292 290 291 293 290 287 288 282 283 286 280 295 288 291 289 291 289 301 304 303 305 306 304 304 303 305
301 302 302 302 302 302 301 296 298 297 293 294 295 295 300 304 301 304 292 293 295 295 300 293 291 284 290 281 284 288 296 299 293 293 297 299 303 306 305 305 304 307 306 306
301 302 302 302 302 302 302 297 299 297 290 286 291 302 300 304 303 303 303 299 300 299 299 294 289 284 293 286 291 291 294 298 296 296 300 301 302 305 305 305 306 308 306 305
301 302 302 302 302 302 301 299 300 301 295 287 290 297 301 304 303 301 301 299 296 293 289 288 290 293 292 292 293 291 297 294 292 291 300 299 300 304 307 305 305 307 306 305
301 302 302 302 302 302 298 292 300 302 302 292 285 296 297 300 300 298 297 298 296 294 291 289 297 298 296 283 286 296 299 299 299 297 303 305 304 304 305 304 304 306 307 306
301 302 302 302 302 299 293 290 298 303 303 292 286 286 295 298 297 295 295 296 294 293 293 290 293 293 296 283 284 296 298 299 300 305 304 301 303 301 303 302 303 304 303 303
301 302 302 301 301 301 297 301 303 303 297 295 282 283 289 293 289 288 294 291 292 291 293 293 293 294 294 288 295 297 299 300 300 304 304 303 302 301 300 301 300 298 297 297
302 301 301 300 297 293 295 302 303 302 295 283 283 280 281 289 288 291 293 291 281 292 285 289 293 290 287 293 295 297 298 298 298 300 302 302 299 299 299 298 297 295 294 289
300 298 291 285 294 301 300 295 291 291 291 288 281 287 281 287 286 285 284 286 283 285 287 294 288 287 297 298 301 302 302 303 303 298 297 298 297 295 292 290 289 287 284 283
297 291 289 296 301 296 291 285 283 285 283 285 286 287 283 289 283 284 286 285 284 283 287 287 286 284 294 300 299 299 300 298 295 294 294 297 293 289 285 283 282 281 280 278
295 294 297 296 292 287 285 282 284 281 280 285 284 284 288 287 290 284 282 285 285 277 289 282 281 286 289 290 290 290 290 290 289 289 288 287 285 284 283 281 280 279 279 278
298 293 288 288 284 280 274 278 275 281 282 286 285 286 287 287 289 285 284 283 282 287 279 279 282 285 285 286 286 285 286 285 284 283 283 282 282 282 280 279 279 279 278 278
288 283 282 283 281 283 282 283 283 286 287 286 286 286 286 285 283 285 282 285 286 280 281 279 281 281 282 282 283 282 281 281 281 280 280 280 279 279 279 279 279 278 277 277
284 284 279 279 283 283 281 283 284 283 286 287 286 285 285 283 283 284 284 282 281 278 275 277 279 280 280 280 280 280 279 279 279 279 278 278 278 277 277 278 278 278 277 276
281 281 280 281 281 278 278 278 279 283 282 285 286 284 283 283 284 281 277 279 273 276 277 278 279 279 279 279 280 279 279 279 278 278 278 278 277 277 277 277 277 277 277 276
282 276 279 280 280 276 277 278 279 282 281 284 284 280 279 284 280 275 276 272 275 277 278 279 279 279 279 280 280 279 279 278 278 278 278 277 278 278 277 275 277 277 277 275

GFSNW_sfc_thetae_084.txt.gz
Theta_e
303 303 304 304 305 305 302 295 285 300 301 286 287 282 284 289 287 290 288 288 286 284 285 285 286 287 291 297 298 293 294 292 287 291 297 298 296 295 295 288 288 289 286 286
303 303 304 304 305 305 299 290 289 300 298 281 282 286 287 288 286 287 287 287 289 290 287 283 286 290 297 299 297 294 294 290 284 288 292 296 293 295 296 297 293 289 284 287
303 303 304 304 304 305 299 286 282 291 293 291 285 284 284 285 290 289 289 287 289 287 285 289 286 289 296 299 297 300 298 292 289 285 288 293 291 295 297 296 289 289 289 291
303 304 304 304 304 304 299 286 285 290 282 285 286 286 286 284 283 289 290 287 286 285 282 284 285 290 295 296 298 299 298 288 291 292 294 295 294 294 295 294 294 289 292 292
302 303 303 304 304 304 296 284 287 290 285 287 287 286 284 284 286 286 285 284 287 287 283 285 284 289 293 291 295 294 297 288 290 289 293 295 293 295 295 295 295 294 295 293
302 303 303 303 304 303 294 294 293 291 287 286 284 284 285 286 288 289 290 288 287 286 287 290 291 294 299 298 294 291 293 291 287 283 292 293 286 291 294 295 297 295 290 295
302 303 303 303 303 303 298 296 294 287 283 285 285 287 288 287 287 286 290 291 288 291 295 295 298 296 297 296 295 296 292 293 288 282 286 282 291 298 299 297 298 297 296 296
303 302 303 303 303 304 299 299 294 289 283 287 287 288 288 288 289 288 288 291 294 294 291 288 287 284 287 290 294 295 298 293 285 284 282 289 293 295 295 294 293 298 296 298
302 302 302 302 303 303 301 299 299 294 286 285 290 288 289 286 285 287 288 294 296 293 288 285 279 276 285 285 290 298 297 294 288 284 280 279 289 297 301 300 289 299 300 299
302 302 302 303 303 303 300 298 300 293 287 289 290 288 288 291 289 286 288 289 289 292 284 281 278 279 289 282 284 285 284 284 283 284 283 286 296 300 302 289 289 300 301 301
302 302 302 302 303 303 300 296 299 293 287 290 292 294 291 291 290 286 288 288 287 286 281 279 280 278 285 287 290 287 286 282 279 283 280 280 299 299 293 296 301 302 302 301
301 301 301 302 302 303 302 294 299 298 291 291 296 297 299 298 297 293 293 289 288 289 285 282 284 281 283 286 282 292 286 289 286 286 286 297 302 303 303 304 303 303 303 303
301 301 301 302 302 302 301 296 297 295 290 289 290 292 298 302 300 303 292 291 294 293 295 290 287 282 288 281 284 287 294 297 290 291 296 298 301 305 305 304 303 304 304 304
302 301 301 301 301 302 301 296 297 294 291 284 289 299 297 303 302 301 302 299 298 296 295 289 286 282 293 286 289 288 292 296 292 292 297 300 301 302 302 304 305 305 305 304
302 301 301 301 302 301 300 298 298 297 290 285 287 295 300 301 300 299 301 301 296 292 288 286 288 291 291 291 291 289 293 292 290 290 298 298 299 303 304 303 302 304 306 304
301 301 302 302 302 301 297 290 297 299 297 290 284 295 297 299 299 299 298 299 297 293 289 287 292 297 294 286 284 293 295 296 298 297 300 301 303 303 304 303 303 304 305 305
301 302 302 302 301 299 291 289 294 300 299 288 285 286 295 299 298 297 295 295 295 292 289 286 289 291 295 287 284 294 297 297 299 301 303 299 301 300 301 302 300 299 299 299
301 301 301 301 301 299 294 298 301 300 295 290 283 285 288 294 290 288 292 288 289 289 288 287 287 289 290 283 292 295 297 299 298 302 303 302 300 300 298 298 297 292 288 289
301 301 301 298 296 293 296 302 302 302 293 283 279 279 281 288 288 289 288 288 282 288 282 284 288 285 283 290 293 295 297 297 297 301 300 299 298 297 296 293 289 286 284 283
300 297 291 285 295 301 300 295 288 290 291 285 277 283 283 287 285 286 286 284 279 280 286 290 282 283 291 296 296 294 294 296 299 296 294 294 291 288 287 285 284 283 281 280
293 290 286 296 302 295 289 284 284 285 283 283 285 284 284 289 282 283 281 284 280 280 281 284 285 284 290 294 293 292 290 290 290 291 291 291 288 284 282 280 280 280 279 277
294 294 296 295 291 286 282 280 283 281 279 283 283 283 285 284 286 281 283 282 284 279 285 280 283 286 288 288 288 288 288 288 287 287 285 284 283 282 281 280 279 278 278 277
297 291 287 286 282 276 272 274 279 275 283 283 285 285 286 287 288 283 284 281 281 286 280 278 282 284 285 285 284 284 285 284 283 282 282 281 280 280 280 278 278 278 277 277
287 280 279 279 278 280 280 283 284 284 285 282 284 285 285 285 283 284 280 281 285 281 280 279 281 281 281 282 282 281 280 281 280 280 279 279 278 278 278 277 278 277 276 276
280 281 275 277 280 280 279 281 283 281 284 286 285 285 286 283 282 283 283 281 280 278 277 277 279 280 280 279 280 279 279 278 278 278 277 277 277 276 276 277 277 277 276 275
280 277 276 278 276 275 277 277 278 281 281 284 286 284 282 282 282 279 274 276 272 273 274 278 279 279 279 279 279 278 278 278 277 277 277 277 276 276 276 276 276 275 275 274
275 274 278 276 274 272 277 277 278 282 281 283 284 278 276 281 276 272 275 270 273 276 277 279 279 278 278 278 278 277 277 277 277 277 277 277 277 277 276 274 275 276 275 274

GFSNW_sfc_thetae_087.txt.gz
Theta_e
302 302 303 303 304 303 301 292 284 296 300 286 284 281 283 287 286 289 288 287 285 283 284 282 283 284 290 296 295 290 295 289 284 288 295 296 294 293 293 287 286 286 284 285
302 302 303 303 303 303 294 288 288 297 296 280 281 284 284 286 285 285 286 286 288 288 284 281 285 285 292 294 297 293 294 288 281 285 290 294 292 293 294 294 290 286 283 286
302 303 303 303 303 304 298 288 282 289 291 290 283 282 283 283 290 287 287 286 287 285 282 286 283 285 291 295 297 299 296 291 287 282 286 290 290 293 294 294 286 286 288 290
302 302 303 303 303 304 298 289 285 289 281 284 286 285 284 283 283 289 289 286 285 284 281 282 282 286 288 293 298 296 293 287 290 291 291 292 293 292 293 291 291 289 291 292
301 302 302 303 303 303 295 286 286 290 285 288 286 286 283 283 285 285 284 283 285 286 283 283 281 285 286 289 295 293 294 288 289 287 291 292 291 293 294 294 293 292 292 292
301 301 302 302 303 302 294 294 293 290 287 285 284 284 284 285 287 288 289 287 285 284 286 289 289 290 289 291 292 291 289 288 286 283 290 290 285 291 293 294 294 292 289 294
302 302 302 302 302 302 297 295 293 286 282 284 284 286 287 286 287 285 289 289 286 290 294 294 292 290 289 289 291 296 290 288 286 283 285 280 289 296 297 295 297 297 296 297
302 302 302 302 302 302 298 298 294 289 282 285 286 286 286 287 289 287 288 290 293 293 291 286 283 282 285 288 293 293 294 291 285 283 282 286 290 293 294 293 292 299 297 298
301 301 302 302 302 302 299 298 299 293 286 284 289 285 287 284 284 285 288 293 295 291 287 283 279 275 280 283 288 296 294 294 288 285 281 278 286 296 300 300 289 299 299 300
302 302 302 302 302 302 299 297 300 294 287 289 290 286 285 289 287 284 287 289 288 291 282 278 277 278 285 279 279 286 286 286 285 284 282 284 293 297 301 288 288 299 300 299
302 302 302 302 302 303 301 298 300 294 288 290 293 293 289 289 289 284 288 287 286 284 279 276 279 277 282 282 287 286 285 284 283 284 280 278 296 299 290 294 301 302 300 302
301 302 302 302 302 302 302 294 300 300 291 290 295 295 295 295 295 292 291 290 288 288 282 281 281 278 278 282 279 291 283 288 286 287 285 293 297 301 303 303 302 302 302 304
301 301 301 302 302 303 302 296 296 294 288 288 289 288 294 299 298 300 290 291 294 293 294 287 285 280 283 277 282 286 291 295 290 290 293 294 297 300 304 304 302 304 304 305
301 301 301 301 302 302 302 297 297 294 290 283 284 294 291 297 298 301 300 298 299 297 295 288 283 281 289 283 286 288 290 295 292 290 294 295 298 300 302 304 305 304 304 305
302 302 301 302 301 302 300 299 298 297 289 280 281 292 294 296 297 298 299 298 296 293 290 287 286 287 288 287 288 287 292 291 288 287 295 294 296 300 303 302 303 304 304 304
302 302 302 302 301 301 297 287 297 299 295 286 281 290 292 296 298 297 297 297 296 295 291 288 290 294 290 281 283 291 295 294 296 294 298 298 300 302 303 303 301 303 304 304
301 301 301 301 301 298 290 287 294 299 296 289 283 286 292 297 297 296 295 296 296 295 292 288 288 290 292 285 281 291 294 294 295 297 299 298 300 299 299 298 295 295 293 294
300 301 301 301 301 298 294 296 299 298 293 290 281 285 288 294 290 289 295 291 292 291 290 289 287 287 286 281 288 292 294 294 295 296 297 300 300 298 296 293 290 286 285 284
301 301 301 298 294 291 294 300 300 298 293 283 283 281 281 291 289 291 289 291 285 287 283 284 287 282 281 287 289 293 294 293 294 299 297 297 295 294 291 289 286 282 281 282
299 296 291 285 295 301 300 294 289 290 291 287 281 286 283 289 286 284 284 281 279 281 285 288 283 282 288 293 294 292 291 291 290 294 292 291 288 286 284 283 282 281 279 279
295 289 289 297 300 293 288 283 283 284 283 285 285 285 284 288 282 283 281 282 280 278 280 282 283 282 287 291 290 289 289 288 287 288 291 291 287 283 280 280 280 279 279 277
294 295 297 295 290 285 282 280 283 280 280 282 284 283 285 286 284 282 284 278 283 278 284 283 280 284 288 288 287 286 287 286 285 284 283 282 281 281 280 279 278 278 278 277
296 291 286 286 281 275 274 275 279 278 278 281 285 283 286 287 285 281 282 279 278 284 283 279 282 285 285 285 284 283 283 283 282 281 281 281 280 280 279 278 278 277 276 276
285 279 274 273 272 277 277 280 283 282 284 284 285 284 284 285 282 282 279 279 284 280 277 278 281 281 281 282 283 282 280 280 279 279 279 278 278 277 277 277 277 276 274 274
279 279 274 274 278 279 279 280 281 281 283 286 285 285 285 283 279 282 281 280 277 279 277 277 279 280 280 279 279 279 278 278 277 277 276 276 276 276 275 276 276 275 274 273
278 276 275 276 275 274 276 276 277 281 281 284 286 283 281 277 279 279 275 274 270 272 275 278 279 279 278 278 278 278 278 277 277 277 277 276 275 275 274 275 275 274 274 273
275 273 275 274 271 273 275 275 277 281 280 282 282 276 275 280 275 272 275 270 273 275 277 278 278 277 276 277 277 277 277 276 276 276 276 276 276 276 275 273 273 274 273 272

GFSNW_sfc_thetae_090.txt.gz
Theta_e
301 301 302 302 302 302 298 292 283 295 299 285 285 279 281 286 284 287 286 285 283 280 282 280 280 282 285 289 290 288 293 289 282 287 293 293 291 290 291 285 283 284 283 285
300 301 301 302 302 302 291 287 287 297 294 279 280 283 282 284 283 283 284 284 286 285 283 279 283 284 289 293 293 291 292 288 282 283 288 291 288 290 292 292 289 286 282 284
300 300 301 301 302 302 294 286 281 286 290 289 282 281 280 280 287 284 285 285 286 283 281 284 282 284 288 290 289 298 294 288 284 282 285 290 287 289 291 292 284 286 287 288
299 300 301 301 301 302 295 288 283 287 279 282 283 283 283 280 280 287 288 283 283 282 280 281 281 284 285 288 291 294 292 283 286 288 290 289 289 290 290 289 290 286 288 290
301 301 301 301 301 302 292 285 284 287 283 285 284 283 281 281 282 284 284 284 286 286 281 283 280 283 283 283 291 292 292 282 287 284 289 291 288 291 291 291 290 289 290 289
300 301 301 301 301 301 291 293 293 289 285 282 282 282 283 283 285 287 288 287 286 284 285 289 289 290 289 288 285 284 287 286 286 282 288 287 283 288 290 290 293 292 287 292
300 300 301 301 301 301 295 294 291 286 280 283 282 285 286 285 286 284 288 289 286 289 293 293 291 289 288 288 287 288 285 287 286 282 284 279 288 294 294 292 293 294 294 295
300 300 300 301 301 302 297 297 293 287 281 284 285 285 285 287 288 287 287 289 292 294 291 286 282 281 283 285 286 286 287 287 283 282 282 285 289 292 292 291 291 296 295 296
300 300 301 301 301 301 298 297 297 292 285 283 287 285 286 284 284 286 288 293 295 292 286 283 278 275 280 279 285 289 290 290 285 284 279 277 288 294 297 298 286 297 297 296
301 301 301 301 301 302 299 296 299 293 286 289 289 285 285 288 287 284 287 289 288 291 284 279 278 278 284 277 277 282 284 285 282 282 282 284 293 297 298 285 287 298 298 298
301 301 301 301 301 301 299 296 299 293 287 290 291 292 289 288 288 283 288 287 286 285 281 279 278 277 281 280 282 282 281 283 283 285 282 280 295 296 291 293 298 300 300 299
301 301 301 301 302 302 301 293 299 299 291 290 295 295 296 295 294 290 290 287 287 287 284 280 280 277 277 281 278 286 281 287 285 287 286 295 296 296 299 303 300 300 300 301
301 301 302 302 302 302 301 297 298 295 287 287 290 290 295 298 296 299 288 288 292 292 295 289 284 278 281 276 279 283 287 292 287 288 292 294 295 298 299 301 301 303 303 304
301 301 301 301 302 302 301 296 297 294 290 284 286 294 291 297 297 297 296 294 297 296 295 289 287 280 287 281 283 283 287 290 288 289 294 296 296 298 298 300 304 303 305 304
302 301 301 301 302 302 300 298 298 297 290 283 282 290 293 295 295 295 297 296 294 292 289 286 286 289 288 286 285 283 289 287 285 285 294 292 293 297 301 299 300 300 301 303
301 302 302 301 301 301 297 289 297 298 296 287 280 288 289 292 292 293 293 294 295 294 290 287 287 292 290 282 280 287 290 292 293 292 295 294 296 299 299 300 296 292 291 295
301 302 302 301 301 299 289 287 294 299 298 288 280 279 289 292 291 290 292 293 293 293 291 289 289 288 291 279 282 288 292 293 293 294 294 292 295 295 294 294 293 292 289 288
301 301 301 301 301 297 293 296 299 299 292 290 277 276 288 292 286 287 293 289 292 292 289 290 289 289 286 283 287 290 292 293 293 293 294 295 295 293 291 290 289 286 284 284
301 301 301 297 293 289 294 300 300 299 292 283 281 274 281 291 290 291 290 292 284 288 285 286 289 285 283 286 288 289 291 292 294 296 297 296 292 290 289 288 286 283 281 281
297 294 288 285 294 300 299 294 289 288 291 288 278 286 283 288 286 286 285 287 284 282 285 288 285 283 287 289 291 291 293 293 292 291 291 289 287 284 282 281 282 281 279 279
294 290 288 295 299 292 289 283 282 284 281 284 284 285 284 288 284 284 285 283 282 276 279 281 282 281 285 289 289 287 287 288 287 288 286 289 286 281 280 279 280 279 279 277
295 295 297 294 290 285 280 276 282 282 279 284 282 285 287 285 288 284 283 280 282 276 283 282 279 281 287 288 286 286 286 284 283 283 282 281 281 280 279 278 278 277 277 276
294 288 284 284 281 277 277 270 278 278 281 284 284 283 285 285 283 282 282 278 278 283 281 280 280 284 284 285 284 283 283 283 282 281 280 280 279 279 279 277 277 276 275 275
283 279 275 273 266 272 276 279 281 281 283 285 282 283 283 284 282 282 278 276 281 280 276 278 281 281 282 282 283 281 280 280 279 279 279 278 277 276 276 276 276 275 273 273
277 277 271 273 277 278 278 280 280 280 282 285 283 284 284 282 280 281 280 279 277 278 272 274 279 280 280 279 279 279 278 277 277 277 276 275 275 275 274 274 274 274 273 272
276 274 272 274 274 273 275 275 276 280 280 284 285 282 280 278 277 279 275 275 271 268 272 275 279 278 278 278 278 277 277 276 276 276 275 274 273 273 273 274 274 273 273 271
274 271 274 273 272 271 272 273 275 279 280 280 280 276 273 278 273 272 274 269 272 273 274 276 277 276 276 276 276 276 276 275 275 275 274 274 274 274 273 271 272 272 271 270

GFSNW_sfc_thetae_093.txt.gz
Theta_e
301 302 301 301 302 302 298 290 282 295 299 284 285 279 281 285 283 286 285 286 283 281 281 279 279 280 286 289 290 287 294 290 285 288 295 296 294 292 292 286 285 289 288 288
301 301 301 301 302 301 293 287 286 296 296 278 280 283 282 284 283 283 284 284 286 286 283 279 283 285 290 291 289 287 288 286 282 286 290 294 291 292 293 293 291 287 285 288
300 300 300 300 301 301 295 286 280 287 290 288 282 280 280 280 286 284 285 284 286 284 282 285 282 283 287 290 289 293 293 287 283 280 285 288 286 290 291 290 287 288 289 291
300 300 300 300 301 301 294 287 282 286 279 282 283 283 282 280 280 285 287 283 283 282 279 281 281 285 286 289 291 291 292 284 287 287 288 288 288 287 289 288 290 287 290 292
299 299 299 301 301 301 291 283 283 286 283 284 282 283 282 280 282 283 282 282 285 285 280 282 281 284 285 284 289 288 288 285 287 284 288 288 286 289 291 291 292 292 292 293
299 299 299 300 300 300 290 291 292 288 283 282 281 281 282 282 284 285 286 285 286 285 286 289 290 290 289 289 286 285 284 284 284 281 288 288 284 288 291 293 294 294 290 296
298 299 299 299 300 300 293 291 290 284 279 282 281 282 284 283 284 283 287 289 285 289 294 293 292 290 289 288 288 289 284 284 283 281 284 278 289 295 296 293 294 297 297 299
300 300 300 300 300 301 294 294 291 286 279 283 283 284 284 285 287 286 287 289 292 295 290 286 282 283 284 286 287 287 288 285 281 279 281 286 287 293 293 291 292 298 296 299
300 300 300 300 300 301 297 294 295 289 284 282 287 284 286 283 284 285 287 293 295 292 287 284 277 275 280 280 284 290 288 287 283 282 278 277 288 296 299 298 289 300 300 300
300 300 300 300 300 301 298 295 296 291 283 288 289 285 285 288 287 285 288 289 289 291 285 281 278 277 284 279 280 282 281 281 279 280 280 285 294 297 301 286 290 300 302 302
300 300 300 301 301 301 298 295 299 291 286 289 291 292 288 289 289 283 288 287 288 286 283 282 281 280 282 282 283 282 284 281 280 282 280 278 297 298 291 295 299 301 303 303
301 301 300 301 301 301 300 293 298 299 290 289 296 296 296 295 294 290 291 288 288 288 285 284 284 281 283 283 279 287 281 287 286 286 284 296 298 297 300 303 299 302 303 305
300 300 301 301 301 301 300 296 297 295 289 287 290 290 296 298 297 299 288 290 293 291 294 289 286 281 285 281 282 285 288 292 289 289 292 294 297 299 300 301 301 303 306 305
300 301 301 301 301 301 301 296 297 294 289 284 287 296 293 299 298 298 298 295 297 296 295 289 287 284 289 285 286 286 289 291 289 289 292 295 297 298 299 300 303 304 305 306
301 301 301 301 302 302 300 298 298 297 291 284 285 291 294 296 297 296 297 296 294 293 289 286 285 289 289 289 288 287 291 289 287 286 293 294 295 298 299 301 298 297 301 305
301 301 301 301 301 302 297 289 296 298 297 288 282 290 290 293 294 294 294 294 294 293 289 288 290 293 291 284 283 290 293 294 295 291 295 297 297 298 299 299 296 294 294 295
301 302 302 302 301 298 291 289 295 299 298 288 282 282 288 292 292 292 291 294 293 292 289 287 289 290 292 286 283 290 293 294 295 296 296 294 295 295 297 296 293 291 290 289
301 301 302 301 301 298 293 298 300 299 292 290 280 279 286 292 287 286 291 289 291 291 289 289 288 291 290 285 289 292 294 295 295 295 296 296 297 295 292 292 292 289 287 286
301 302 301 299 290 287 293 300 300 299 292 284 282 277 279 291 288 290 290 291 285 291 286 287 289 287 283 288 290 291 293 293 293 296 296 298 295 293 291 290 288 284 283 282
301 297 287 284 291 300 299 294 287 288 290 287 281 284 281 288 287 285 284 287 284 281 285 290 285 285 290 292 293 293 292 294 295 293 294 293 291 287 285 286 285 284 282 280
291 286 287 295 299 293 289 283 283 284 282 284 285 285 284 289 285 284 286 284 284 279 284 284 283 283 287 290 290 288 288 289 288 289 288 289 292 285 282 281 281 281 280 278
295 294 296 295 290 285 282 280 283 281 279 284 283 285 287 286 289 285 284 282 283 278 286 283 280 284 287 288 287 287 286 285 284 284 284 284 283 283 282 280 279 279 277 276
294 288 285 285 279 274 271 275 278 279 282 285 285 284 285 285 286 283 283 280 280 285 282 280 282 283 284 285 284 283 283 283 282 281 281 281 280 281 280 278 278 277 275 274
283 277 270 271 270 273 275 278 280 281 283 285 285 284 284 285 282 283 279 280 283 279 278 279 279 281 281 282 282 281 280 281 280 280 279 278 277 276 276 276 275 274 272 272
276 276 270 270 276 276 277 278 281 280 282 285 284 285 285 282 281 283 281 278 277 279 276 275 278 280 280 280 279 278 278 277 277 277 276 275 275 274 274 274 274 273 272 270
274 272 271 272 273 272 273 274 276 279 279 283 286 282 279 279 281 279 275 276 274 272 274 277 279 278 278 277 278 277 277 276 275 275 274 274 273 272 272 272 272 271 270 269
273 271 274 273 271 270 271 273 275 279 278 280 280 275 273 279 275 272 274 271 273 276 276 277 277 276 276 276 276 276 275 275 274 274 274 273 273 273 272 270 271 271 270 269

GFSNW_sfc_thetae_096.txt.gz
Theta_e
300 299 301 301 302 302 300 295 284 298 303 287 287 283 283 286 285 288 285 286 285 283 284 282 282 282 285 291 290 286 292 290 286 290 298 299 298 295 294 289 288 292 291 291
300 299 300 301 301 301 296 289 289 297 299 281 282 285 284 286 284 285 284 283 286 286 283 280 283 285 290 292 293 290 291 288 284 287 293 296 293 295 296 295 295 290 288 292
295 300 300 300 300 301 299 289 283 289 290 290 286 283 283 282 287 286 287 285 287 286 284 287 284 286 290 293 292 295 293 288 285 283 287 291 289 291 294 292 289 291 292 293
297 300 300 300 300 301 298 288 285 288 281 284 286 286 284 282 281 287 288 285 285 283 281 282 283 287 288 291 293 294 292 285 287 288 289 289 288 289 290 291 292 289 293 294
298 299 299 300 300 300 293 286 286 290 286 287 285 284 283 282 283 285 284 284 286 287 284 285 283 287 288 287 291 291 290 285 288 286 290 289 287 289 291 291 293 294 294 294
299 299 299 297 300 300 290 293 295 290 285 285 283 283 284 284 286 288 288 287 286 285 287 290 291 292 292 291 289 288 287 287 285 282 289 289 285 289 291 292 295 296 293 298
298 299 299 299 299 300 296 293 293 287 281 284 283 284 286 285 286 285 288 289 287 290 294 294 293 292 291 291 291 292 287 285 284 282 285 278 290 297 296 294 297 300 300 301
299 299 299 299 300 300 299 296 292 288 281 284 284 285 285 287 288 287 287 289 291 294 291 286 283 285 286 288 291 291 292 288 282 280 281 285 289 293 295 295 294 301 302 303
300 299 300 300 300 300 300 298 298 292 284 283 286 285 287 285 285 286 288 292 295 292 288 285 279 278 280 281 286 293 291 290 285 283 278 276 287 297 301 300 289 303 303 303
299 300 300 300 300 300 299 297 300 293 284 288 289 285 285 289 287 286 288 290 289 293 285 282 281 280 285 281 281 283 284 285 281 282 280 284 292 297 302 288 291 301 303 302
299 300 300 300 300 300 300 296 301 293 287 289 290 291 287 289 289 284 289 288 289 288 283 283 283 282 284 283 286 286 285 283 281 282 280 278 296 297 290 295 301 302 302 302
299 299 300 300 301 301 301 292 299 300 291 289 295 295 296 295 294 291 291 289 289 290 287 287 288 284 286 285 281 290 284 288 287 288 286 295 298 297 299 300 300 301 301 302
300 300 300 300 301 301 300 295 297 294 289 287 290 289 297 300 300 302 289 292 293 292 296 291 289 284 289 283 285 287 291 294 290 290 292 295 296 297 299 300 302 304 306 306
300 300 300 301 301 301 301 296 297 295 289 284 288 297 295 300 301 300 300 297 298 297 296 290 288 286 292 287 289 288 292 293 290 290 293 294 296 298 299 300 304 303 303 307
300 301 301 301 301 301 300 299 298 297 291 286 288 295 297 298 298 298 298 297 295 294 290 287 286 291 291 292 291 289 294 292 289 288 295 294 294 298 300 300 303 302 302 308
301 301 301 301 301 301 297 286 297 299 297 289 285 295 293 297 297 296 295 297 296 294 289 290 291 296 293 288 286 292 295 297 297 295 298 298 299 300 301 302 300 299 300 304
301 301 301 301 301 299 291 291 296 299 297 288 285 288 293 296 296 295 295 296 294 292 289 289 290 293 293 289 285 292 295 296 297 298 298 296 298 297 301 300 298 296 295 295
301 301 301 301 301 298 294 301 300 299 293 291 284 286 289 295 291 290 296 291 293 291 290 291 290 291 290 286 291 293 295 297 297 298 300 299 300 300 299 299 299 294 291 291
301 301 301 299 291 290 293 300 300 301 295 286 285 284 283 295 292 293 293 293 286 293 287 288 290 287 284 288 291 292 295 296 297 299 299 299 299 300 298 296 295 292 287 285
301 294 287 284 289 300 299 294 288 289 292 291 287 291 284 290 288 288 288 290 286 282 287 292 286 287 292 293 294 295 296 297 298 296 296 297 298 296 294 294 293 290 284 282
291 286 288 295 300 296 289 285 285 286 284 288 289 290 287 293 287 286 290 285 286 281 285 285 285 284 291 295 295 295 293 294 294 295 296 296 296 296 291 289 289 287 283 280
293 294 297 296 290 287 285 284 285 284 283 285 284 288 292 288 293 289 287 285 285 281 289 285 283 287 288 290 290 290 289 288 289 290 290 290 291 293 290 287 285 282 279 277
298 293 286 288 284 282 280 276 280 281 286 286 287 285 287 288 291 287 285 282 283 290 284 283 284 283 284 284 285 285 285 284 284 284 286 287 287 287 286 281 279 278 276 276
286 285 276 281 279 280 281 283 284 285 286 286 287 285 288 288 285 287 281 284 286 281 280 281 279 281 282 283 283 283 281 281 281 281 282 281 281 279 279 278 277 275 274 274
281 282 275 276 279 280 280 283 284 283 284 287 287 287 286 284 284 285 283 280 280 282 279 278 281 281 281 281 281 281 279 278 277 277 276 276 276 275 275 275 275 274 273 272
278 277 276 278 279 278 279 280 281 282 281 285 288 285 282 281 283 281 278 280 277 276 278 280 281 280 280 279 279 278 278 277 276 275 275 274 273 272 272 272 272 271 271 270
276 275 277 277 277 275 277 278 279 282 281 284 285 281 278 283 278 274 277 275 276 278 279 279 279 279 279 278 278 277 277 276 276 275 275 274 274 274 273 271 271 271 271 270

GFSNW_sfc_thetae_099.txt.gz
Theta_e
300 300 301 299 300 301 298 295 287 303 304 288 287 285 287 288 287 289 287 287 286 285 286 285 285 285 287 291 291 287 293 291 288 291 298 300 298 294 294 288 287 291 291 292
300 299 300 299 298 300 297 288 291 303 301 283 284 288 287 288 286 287 286 285 287 288 285 282 285 286 290 291 291 291 293 288 284 287 293 297 294 297 297 296 295 290 288 291
299 300 299 300 300 300 297 290 284 291 293 292 287 286 285 285 289 288 289 287 288 286 284 287 285 286 290 293 293 294 293 289 287 284 287 290 291 294 296 295 290 291 292 294
299 299 299 299 300 299 295 289 288 290 284 286 287 288 287 284 284 288 289 287 286 285 282 284 284 288 289 291 293 293 292 286 288 289 290 290 289 290 291 291 293 290 294 294
298 299 299 300 300 299 292 286 288 291 288 288 287 286 285 284 285 286 285 285 287 288 284 285 283 286 287 287 291 290 293 286 288 286 290 290 288 290 291 291 292 293 295 295
299 299 299 300 300 298 290 293 295 292 287 287 285 285 285 286 287 288 290 288 287 286 288 291 293 294 294 291 290 290 289 288 286 283 288 288 285 289 290 291 292 293 290 296
299 299 299 300 299 298 296 295 295 288 283 285 285 286 287 286 287 286 289 290 288 291 296 295 293 292 292 292 292 293 288 287 287 283 286 278 290 297 296 295 295 295 295 296
299 299 299 299 299 299 296 297 295 290 284 285 285 286 286 288 289 288 288 291 293 297 291 286 284 286 286 288 291 291 291 288 284 281 282 286 288 292 294 294 294 300 300 302
299 299 299 299 299 299 299 298 299 294 287 285 288 286 287 285 286 287 290 294 296 294 287 285 279 279 283 282 287 293 291 291 286 283 279 277 288 297 300 301 290 302 302 301
299 300 300 299 300 300 300 297 301 294 285 290 290 287 287 289 288 287 289 290 290 293 285 283 281 281 286 281 282 284 286 286 283 283 281 286 293 295 299 288 291 301 301 302
299 299 300 300 300 300 300 297 302 294 288 290 292 292 289 289 290 285 289 288 290 289 283 283 283 283 285 285 287 286 285 284 283 284 281 280 296 296 290 296 301 301 302 303
299 299 300 300 300 300 301 295 300 301 292 291 297 296 297 295 293 292 291 290 289 290 287 287 288 284 288 286 282 291 284 290 287 288 288 295 297 298 300 301 298 301 301 304
299 299 299 300 300 301 301 298 300 298 290 289 291 290 296 300 298 299 289 292 294 292 296 290 288 285 289 284 286 288 292 295 290 291 293 295 297 300 297 299 299 301 304 304
299 300 300 300 300 301 301 296 299 298 289 284 288 298 294 298 300 299 298 295 297 296 296 290 289 285 292 288 290 289 292 294 292 291 294 296 296 298 299 299 301 301 304 303
300 300 300 300 301 301 300 298 298 298 291 287 288 295 297 299 298 296 298 297 295 293 290 288 287 291 291 292 291 289 294 292 291 289 295 295 296 299 300 299 300 302 302 306
299 300 300 300 301 301 297 288 297 298 297 289 284 296 295 298 298 296 296 297 296 294 289 290 292 295 292 287 286 293 295 297 298 294 298 298 299 300 301 300 302 301 302 303
300 300 300 301 301 299 289 291 296 299 298 287 286 287 295 297 297 296 295 297 295 293 289 289 291 292 293 289 285 293 295 297 298 299 299 297 299 298 301 302 302 299 299 297
300 301 301 301 301 298 293 301 300 299 292 290 285 287 291 297 291 290 295 292 294 292 290 291 289 293 292 285 290 293 296 297 298 298 300 300 301 301 300 301 301 298 295 291
301 301 301 299 293 290 294 300 300 301 294 287 287 286 284 296 294 295 293 294 286 294 288 289 291 289 285 289 291 292 295 295 296 299 300 300 300 300 301 300 300 298 292 287
301 296 286 285 290 300 299 293 288 290 292 292 286 293 288 294 292 291 291 292 287 284 289 292 287 287 293 294 295 295 296 297 298 296 295 297 300 299 299 298 298 297 291 285
291 286 288 294 300 296 290 285 286 288 285 289 290 291 289 295 288 287 292 287 289 282 287 286 286 286 291 295 296 297 296 297 297 297 297 298 298 298 298 296 294 290 286 282
293 295 297 296 290 287 285 284 286 286 284 290 288 291 292 292 295 290 289 284 286 281 291 285 283 284 287 289 290 290 292 292 292 292 292 294 294 297 297 294 291 285 281 278
299 294 288 289 286 283 282 279 282 284 289 288 289 287 290 292 292 289 286 283 282 292 284 284 283 284 285 286 286 287 287 287 287 286 287 288 290 291 291 286 283 280 278 277
288 286 279 284 281 283 284 286 288 288 290 289 289 289 289 291 287 288 281 287 288 281 280 279 281 281 283 285 285 285 284 282 282 282 282 282 281 281 281 280 279 277 275 275
284 286 278 278 281 282 283 286 287 286 287 289 288 289 289 286 285 286 287 282 281 283 280 280 281 282 281 282 282 282 281 280 280 280 278 278 277 276 276 277 276 275 274 273
281 280 279 282 282 281 282 283 283 284 285 288 288 286 284 283 285 283 281 281 279 277 279 281 281 281 280 280 280 280 279 279 278 278 276 275 273 272 272 273 273 272 272 271
279 277 280 281 280 279 280 282 281 285 284 285 287 284 281 286 282 278 280 277 278 279 280 281 280 280 280 279 279 279 279 278 277 276 275 274 274 274 272 271 271 272 272 271

GFSNW_sfc_thetae_105.txt.gz
Theta_e
299 299 300 300 300 300 296 291 281 294 298 285 286 281 284 288 286 288 287 287 285 282 283 281 281 282 286 291 290 284 286 283 278 282 289 294 293 290 290 280 281 285 284 284
299 299 300 300 300 300 291 286 285 293 295 279 281 284 285 286 285 285 286 285 286 286 282 278 283 284 289 290 288 285 286 283 278 280 284 288 289 290 292 289 288 283 280 285
299 299 299 300 300 299 293 286 278 284 287 287 283 282 282 283 289 287 288 286 287 284 282 284 281 283 288 290 289 296 292 284 281 277 281 285 282 286 289 286 284 285 285 288
299 299 299 299 300 300 293 285 281 285 273 282 283 284 284 282 282 288 288 284 284 283 280 281 281 284 285 288 291 290 287 280 283 284 285 285 284 284 285 284 287 285 288 287
298 298 299 299 299 299 290 283 283 285 283 285 284 284 283 282 284 285 284 284 286 286 282 282 281 285 286 285 289 288 289 280 283 280 283 283 282 284 285 286 287 287 288 288
297 298 299 299 299 298 290 289 289 287 283 283 283 283 283 284 286 287 288 287 286 284 286 289 290 290 289 288 286 285 285 283 280 277 282 282 278 283 285 286 288 288 284 289
298 298 299 299 299 298 291 292 291 284 278 282 282 284 285 284 285 284 287 289 286 290 295 293 290 289 288 288 287 288 283 282 281 277 280 272 283 290 290 288 289 292 296 297
298 299 299 299 299 299 293 294 288 288 280 284 284 285 285 286 287 285 286 289 291 293 289 279 279 279 281 283 286 286 287 283 279 277 277 281 285 289 291 290 290 297 295 297
298 299 299 299 299 299 294 293 294 289 282 279 286 284 285 282 281 283 286 292 294 290 282 277 274 273 279 279 282 289 287 285 281 278 275 271 284 292 294 293 284 296 297 296
298 299 299 299 299 299 294 291 294 291 284 286 286 280 283 287 286 283 286 287 288 290 283 274 274 276 283 278 279 281 281 280 278 277 275 281 290 294 296 281 284 296 297 297
298 298 299 299 299 299 295 290 294 291 286 287 289 289 285 286 286 280 287 285 287 286 280 276 279 278 282 282 284 283 281 277 276 278 273 274 294 294 287 292 294 295 296 297
298 298 298 298 298 299 299 288 294 296 289 286 293 293 293 291 289 286 288 286 287 287 284 285 284 280 282 283 278 287 281 284 281 280 280 293 296 294 298 296 294 294 294 296
298 298 298 297 299 299 298 290 291 292 288 285 286 286 292 295 293 294 284 287 290 287 290 285 285 282 286 279 282 284 287 291 286 287 291 292 296 298 298 295 294 295 297 297
298 298 299 298 298 299 299 293 292 290 290 280 284 294 290 295 295 293 293 291 292 291 288 283 283 281 286 282 284 284 288 290 287 288 292 295 296 297 297 297 296 296 301 300
298 298 299 299 299 299 297 295 294 294 288 281 284 291 294 296 295 293 292 291 289 288 286 284 284 287 286 287 286 284 291 289 286 286 293 292 294 296 298 296 298 300 300 294
298 298 299 299 299 300 295 287 294 296 295 287 279 291 292 295 295 293 292 292 289 289 288 287 288 292 288 281 281 289 292 293 294 291 297 296 296 298 299 299 297 295 293 292
299 299 299 300 300 296 290 287 293 298 296 285 281 282 289 292 292 293 292 293 292 289 288 286 287 287 289 284 280 288 291 293 293 295 295 294 296 295 299 296 293 291 288 288
300 300 299 300 300 298 292 294 300 299 291 288 281 280 286 294 288 287 293 289 290 290 289 288 287 288 287 282 289 291 293 293 293 293 297 297 297 298 299 297 293 288 285 283
301 300 300 298 294 287 291 299 300 298 291 283 283 279 278 293 290 291 290 290 284 289 285 286 286 283 281 287 289 289 292 293 294 296 296 296 296 295 297 297 292 286 283 281
300 296 287 282 288 299 298 292 288 286 287 289 283 285 278 289 287 287 285 286 282 276 283 288 281 281 288 289 289 288 289 290 291 289 289 291 291 292 293 293 293 286 282 280
291 285 286 292 299 293 287 283 282 284 282 285 286 286 282 290 283 282 284 280 281 277 281 281 280 281 284 288 287 288 286 287 288 288 289 289 288 288 290 288 285 282 280 278
292 294 296 295 289 285 283 281 282 281 279 285 284 285 288 287 291 284 283 278 281 275 285 282 278 280 283 284 284 286 283 283 284 285 285 285 284 286 284 282 279 278 277 276
297 292 287 286 284 279 277 275 279 276 282 285 284 284 284 286 287 284 282 278 275 283 273 276 278 280 282 282 282 283 283 281 281 281 281 281 281 282 281 279 278 277 275 275
287 284 281 282 278 278 280 280 282 285 285 284 285 281 281 281 281 283 278 277 283 278 274 274 277 279 279 281 281 280 279 279 278 278 278 278 277 277 277 276 276 274 273 274
283 282 277 278 281 284 284 285 285 285 284 284 283 283 282 280 279 281 279 279 276 276 271 276 278 279 278 279 279 278 278 277 276 274 271 272 274 274 273 274 274 274 273 272
281 279 280 282 281 280 282 283 282 284 285 285 283 283 280 273 277 278 276 275 271 271 276 276 276 278 278 277 277 277 275 271 269 268 270 269 269 271 271 272 272 272 271 270
278 276 279 281 279 278 279 281 281 284 284 283 283 279 275 280 275 275 277 271 272 273 274 275 275 275 275 278 276 275 276 273 270 268 269 271 272 271 271 269 270 270 270 269

GFSNW_sfc_thetae_108.txt.gz
Theta_e
300 300 299 300 300 300 295 286 279 290 299 284 285 280 283 288 286 288 286 285 283 281 282 281 280 281 284 288 288 283 286 281 277 280 287 289 292 288 289 281 279 282 282 282
299 299 299 299 300 299 288 285 285 290 290 269 280 284 284 286 285 285 284 283 286 286 281 278 283 283 288 288 287 285 285 280 277 278 282 289 286 288 287 289 287 281 278 281
298 299 299 299 299 300 290 284 274 280 286 285 280 280 280 281 287 285 286 285 287 283 281 283 280 282 287 289 288 295 291 282 279 275 279 282 280 283 285 286 279 281 281 286
298 298 299 300 299 299 293 284 278 282 271 277 282 283 282 280 280 286 287 284 284 282 278 279 279 282 286 288 292 289 286 279 281 282 283 282 281 281 282 281 283 281 284 285
298 298 298 298 299 299 289 279 278 282 280 282 280 282 281 280 282 284 283 282 284 285 280 281 279 284 284 284 287 286 287 279 281 279 283 282 280 282 282 283 283 283 285 286
298 298 298 298 299 297 288 290 287 284 279 278 277 279 282 283 285 286 287 285 284 283 286 287 288 288 288 287 284 283 283 281 279 276 282 281 277 281 282 283 285 285 281 288
298 299 299 299 299 296 289 290 290 283 276 279 280 283 283 284 285 283 286 288 286 288 293 291 288 287 287 287 286 287 282 281 280 276 279 270 280 288 288 285 287 290 293 295
299 299 299 300 299 299 289 289 288 284 279 283 283 283 284 285 286 284 285 287 289 291 288 278 279 278 280 282 284 284 286 282 274 271 274 279 281 287 288 286 286 295 294 295
298 299 299 299 299 299 291 291 293 288 281 279 285 282 284 281 280 281 285 291 293 289 280 276 273 272 277 275 282 288 285 284 279 275 272 272 283 290 294 292 283 295 296 295
298 299 299 299 299 299 291 289 294 290 284 284 285 278 281 285 281 278 285 285 286 289 276 275 273 275 282 276 277 279 280 280 276 276 271 278 288 291 293 281 284 296 295 296
298 298 299 299 299 299 293 288 292 291 286 284 287 287 282 282 283 279 285 282 285 284 276 278 277 277 280 280 283 281 280 278 275 278 271 273 293 293 286 290 293 294 293 294
297 297 298 298 298 299 298 289 292 293 288 285 290 292 292 290 289 284 285 283 286 286 280 281 280 280 281 282 277 286 280 284 279 278 279 290 294 293 296 295 293 293 292 293
297 297 297 298 298 298 297 291 290 289 287 286 285 285 290 293 292 291 282 284 289 288 289 283 281 278 283 278 280 283 286 289 286 285 288 290 294 297 298 297 292 293 295 298
297 298 298 298 298 298 298 293 290 289 286 282 280 291 289 293 292 291 291 288 289 288 286 282 281 278 286 281 283 283 286 287 286 287 288 291 294 297 297 296 295 295 297 296
297 297 298 298 298 298 297 294 293 291 285 280 281 288 291 292 292 290 290 290 288 285 284 284 281 285 283 284 286 284 291 288 284 283 291 291 292 296 297 295 296 298 294 290
297 298 297 298 298 299 294 287 293 293 293 286 278 286 289 292 292 291 290 290 288 287 285 286 287 289 286 282 282 289 291 291 291 289 294 294 295 297 298 294 293 291 290 289
298 297 297 297 299 297 290 285 289 297 293 285 279 279 288 292 290 291 289 291 290 288 286 285 285 286 288 282 279 287 290 292 293 295 294 294 295 294 294 292 288 288 286 285
298 298 298 298 299 297 291 294 299 297 291 288 279 279 284 292 286 286 291 290 290 288 286 288 286 287 286 281 287 288 289 292 294 294 296 296 296 297 294 293 289 285 282 281
299 299 299 297 294 289 291 299 299 297 291 281 280 278 276 291 289 290 290 291 283 290 284 286 287 283 282 284 284 284 285 286 287 292 291 292 292 292 295 292 288 283 281 279
301 296 285 282 288 298 297 290 288 285 286 287 281 284 278 287 284 286 285 287 281 281 283 287 283 282 287 286 286 284 283 284 285 285 284 285 285 288 290 287 287 283 280 279
291 285 286 291 299 292 288 282 282 280 281 284 284 283 280 287 280 280 286 278 280 276 280 281 280 281 283 285 284 284 282 282 283 283 285 284 284 284 286 282 281 280 279 278
292 293 296 294 289 285 281 279 281 281 278 281 281 282 284 283 287 281 282 277 278 273 284 282 279 279 281 282 281 283 281 281 281 282 281 281 281 283 282 281 279 279 278 276
296 292 286 286 284 278 276 275 274 276 279 280 280 281 283 285 285 284 282 273 273 280 270 276 276 278 280 280 280 280 281 280 279 278 278 278 279 279 280 278 278 277 275 275
286 284 280 279 276 279 277 279 280 282 279 283 282 282 283 280 279 278 271 276 281 277 269 272 275 277 278 278 280 278 277 278 274 274 275 275 275 275 276 275 275 274 274 273
283 281 273 273 281 282 283 285 284 284 281 282 281 281 281 282 277 282 277 278 275 274 268 271 275 276 277 277 278 276 275 272 270 268 266 267 269 271 272 273 274 273 272 271
279 276 276 282 281 280 281 282 281 283 282 285 282 281 276 273 273 278 277 275 271 268 270 272 274 274 274 276 275 274 271 268 265 263 264 265 266 267 269 271 271 271 271 270
276 275 278 279 278 277 278 280 280 283 284 281 283 278 273 277 277 273 275 266 269 272 271 272 271 272 271 272 272 271 272 269 267 265 268 267 268 268 268 266 267 268 268 268